KJ6MC Weather Reports


Display with metric or nautical units.
time (UTC)temp
F
wind
direction
speed
MPH
gust
MPH
rain 1hr
in
rain 24hr
in
rain mn
in
humidity
%
barometer
mb
20260502152316 57 198 3.0 8.0 0.00 0.00 0.00 86 1011.9
20260502152234 57 219 3.0 8.0 0.00 0.00 0.00 86 1011.9
20260502152216 57 233 3.0 8.0 0.00 0.00 0.00 86 1011.9
20260502152115 57 228 4.0 8.0 0.00 0.00 0.00 86 1011.9
20260502152015 57 240 4.0 8.0 0.00 0.00 0.00 86 1011.9
20260502151953 57 233 3.0 7.0 0.00 0.00 0.00 86 1012.0
20260502151914 57 259 3.0 8.0 0.00 0.00 0.00 86 1012.0
20260502151843 57 289 3.0 8.0 0.00 0.00 0.00 86 1012.0
20260502151712 57 248 3.0 7.0 0.00 0.00 0.00 86 1012.0
20260502151612 57 224 3.0 10.0 0.00 0.00 0.00 86 1012.0
20260502151512 57 184 4.0 10.0 0.00 0.00 0.00 86 1012.0
20260502151413 56 245 3.0 10.0 0.00 0.00 0.00 86 1012.0
20260502151312 56 235 3.0 10.0 0.00 0.00 0.00 86 1012.0
20260502151232 56 228 3.0 10.0 0.00 0.00 0.00 86 1012.0
20260502151212 56 225 3.0 10.0 0.00 0.00 0.00 86 1012.0
20260502151112 56 236 3.0 10.0 0.00 0.00 0.00 86 1012.0
20260502151012 56 238 3.0 10.0 0.00 0.00 0.00 86 1012.0
20260502150951 56 236 3.0 10.0 0.00 0.00 0.00 86 1012.0
20260502150913 56 200 3.0 10.0 0.00 0.00 0.00 86 1012.0
20260502150842 56 177 3.0 10.0 0.00 0.00 0.00 86 1012.0
20260502150706 56 232 3.0 10.0 0.00 0.00 0.00 86 1012.0
20260502150605 56 188 3.0 8.0 0.00 0.00 0.00 87 1011.9
20260502150506 56 148 3.0 8.0 0.00 0.00 0.00 86 1011.9
20260502150406 56 233 3.0 8.0 0.00 0.00 0.00 86 1012.0
20260502150306 56 252 3.0 8.0 0.00 0.00 0.00 86 1011.9
20260502150231 56 252 2.0 8.0 0.00 0.00 0.00 86 1012.0
20260502150200 56 236 2.0 8.0 0.00 0.00 0.00 86 1012.0
20260502140107 54 240 2.0 10.0 0.00 0.00 0.00 88 1011.5
20260502130738 53 239 2.0 8.0 0.00 0.00 0.00 90 1011.0
20260502130727 53 219 2.0 8.0 0.00 0.00 0.00 90 1011.0
20260502130628 53 223 3.0 8.0 0.00 0.00 0.00 90 1010.9
20260502130526 53 231 3.0 8.0 0.00 0.00 0.00 90 1011.0
20260502130422 53 236 3.0 8.0 0.00 0.00 0.00 90 1011.0
20260502130320 53 235 2.0 8.0 0.00 0.00 0.00 90 1011.0
20260502130220 53 191 2.0 8.0 0.00 0.00 0.00 90 1011.0
20260502130200 53 250 2.0 8.0 0.00 0.00 0.00 90 1011.0
20260502130120 53 236 2.0 8.0 0.00 0.00 0.00 90 1011.0
20260502123806 53 200 1.0 4.0 0.00 0.00 0.00 91 1010.9
20260502123706 53 162 1.0 4.0 0.00 0.00 0.00 91 1010.9
20260502123630 53 200 1.0 4.0 0.00 0.00 0.00 91 1010.9
20260502123604 53 235 1.0 4.0 0.00 0.00 0.00 91 1010.9
20260502123504 53 232 2.0 4.0 0.00 0.00 0.00 91 1010.9
20260502123405 53 195 1.0 4.0 0.00 0.00 0.00 91 1010.9
20260502123304 53 231 1.0 4.0 0.00 0.00 0.00 91 1010.9
20260502123200 53 226 2.0 5.0 0.00 0.00 0.00 91 1010.8
20260502123126 53 228 2.0 5.0 0.00 0.00 0.00 91 1010.8
20260502123058 53 235 2.0 5.0 0.00 0.00 0.00 91 1010.8
20260502122958 53 203 2.0 5.0 0.00 0.00 0.00 91 1010.8
20260502122856 53 200 1.0 5.0 0.00 0.00 0.00 91 1010.8
20260502122756 53 236 1.0 5.0 0.00 0.00 0.00 91 1010.8
20260502122652 53 221 2.0 5.0 0.00 0.00 0.00 91 1010.8
20260502122626 53 217 1.0 5.0 0.00 0.00 0.00 91 1010.8
20260502122551 53 212 1.0 5.0 0.00 0.00 0.00 91 1010.8
20260502122450 53 225 1.0 5.0 0.00 0.00 0.00 91 1010.8
20260502122350 53 232 1.0 5.0 0.00 0.00 0.00 91 1010.8
20260502122248 53 187 1.0 5.0 0.00 0.00 0.00 91 1010.8
20260502122146 53 217 1.0 6.0 0.00 0.00 0.00 91 1010.8
20260502122126 53 150 1.0 6.0 0.00 0.00 0.00 91 1010.8
20260502122042 53 158 2.0 6.0 0.00 0.00 0.00 91 1010.8
20260502121942 53 158 2.0 6.0 0.00 0.00 0.00 91 1010.8
20260502121842 53 221 2.0 6.0 0.00 0.00 0.00 91 1010.7
20260502121742 53 217 2.0 6.0 0.00 0.00 0.00 91 1010.8
20260502121623 53 221 2.0 6.0 0.00 0.00 0.00 91 1010.7
20260502121540 53 221 2.0 6.0 0.00 0.00 0.00 91 1010.8
20260502121440 53 231 2.0 6.0 0.00 0.00 0.00 91 1010.7
20260502121338 53 214 2.0 6.0 0.00 0.00 0.00 91 1010.7
20260502121235 53 216 1.0 6.0 0.00 0.00 0.00 91 1010.8
20260502121146 53 243 1.0 4.0 0.00 0.00 0.00 91 1010.8
20260502121135 53 245 1.0 4.0 0.00 0.00 0.00 91 1010.8
20260502121030 53 226 1.0 4.0 0.00 0.00 0.00 91 1010.7
20260502120930 53 166 1.0 4.0 0.00 0.00 0.00 91 1010.7
20260502120830 53 207 1.0 4.0 0.00 0.00 0.00 91 1010.8
20260502120728 53 214 1.0 4.0 0.00 0.00 0.00 91 1010.8
20260502120624 53 207 1.0 4.0 0.00 0.00 0.00 91 1010.8
20260502120522 53 205 1.0 4.0 0.00 0.00 0.00 91 1010.8
20260502120422 53 205 1.0 4.0 0.00 0.00 0.00 91 1010.8
20260502120322 53 222 0.0 4.0 0.00 0.00 0.00 91 1010.7
20260502120223 53 221 0.0 2.0 0.00 0.00 0.00 91 1010.7
20260502120126 53 215 1.0 3.0 0.00 0.00 0.00 91 1010.8
20260502115920 53 192 0.0 5.0 0.00 0.00 0.00 91 1010.9
20260502115820 53 193 0.0 5.0 0.00 0.00 0.00 91 1010.9
20260502115752 53 193 0.0 5.0 0.00 0.00 0.00 91 1010.8
20260502115720 53 193 0.0 5.0 0.00 0.00 0.00 91 1010.8
20260502115620 53 195 0.0 5.0 0.00 0.00 0.00 91 1010.8
20260502115518 53 207 1.0 5.0 0.00 0.00 0.00 91 1010.8
20260502115418 53 207 1.0 5.0 0.00 0.00 0.00 91 1010.8
20260502115318 53 207 1.0 5.0 0.00 0.00 0.00 91 1010.8
20260502115218 53 207 1.0 5.0 0.00 0.00 0.00 91 1010.8
20260502115122 53 205 0.0 5.0 0.00 0.00 0.00 91 1010.8
20260502115115 53 239 0.0 5.0 0.00 0.00 0.00 91 1010.8
20260502115016 53 167 1.0 3.0 0.00 0.00 0.00 91 1010.8
20260502114912 53 167 1.0 3.0 0.00 0.00 0.00 91 1010.9
20260502114812 53 168 1.0 4.0 0.00 0.00 0.00 91 1010.9
20260502114712 53 154 1.0 4.0 0.00 0.00 0.00 91 1010.9
20260502114612 53 229 1.0 4.0 0.00 0.00 0.00 91 1010.9
20260502114512 53 229 1.0 4.0 0.00 0.00 0.00 91 1010.8
20260502114412 53 195 1.0 4.0 0.00 0.00 0.00 91 1010.9
20260502114311 53 195 1.0 4.0 0.00 0.00 0.00 91 1010.9
20260502114210 53 184 1.0 4.0 0.00 0.00 0.00 91 1010.8
20260502114121 53 215 1.0 4.0 0.00 0.00 0.00 91 1010.9
20260502114110 53 216 1.0 4.0 0.00 0.00 0.00 91 1010.9
20260502113911 53 136 1.0 4.0 0.00 0.00 0.00 91 1010.9
20260502113811 53 200 1.0 3.0 0.00 0.00 0.00 91 1010.9
20260502113708 53 207 1.0 6.0 0.00 0.00 0.00 91 1010.9
20260502113618 53 191 1.0 6.0 0.00 0.00 0.00 91 1010.9
20260502113508 53 226 1.0 6.0 0.00 0.00 0.00 91 1010.9
20260502113408 53 226 1.0 6.0 0.00 0.00 0.00 91 1010.9
20260502113307 53 229 1.0 6.0 0.00 0.00 0.00 91 1010.9
20260502113208 53 229 2.0 6.0 0.00 0.00 0.00 91 1011.0
20260502113119 53 229 2.0 6.0 0.00 0.00 0.00 91 1011.0
20260502113106 53 230 2.0 6.0 0.00 0.00 0.00 91 1011.0
20260502113006 53 229 2.0 6.0 0.00 0.00 0.00 91 1010.9
20260502112906 53 228 2.0 6.0 0.00 0.00 0.00 91 1011.0
20260502112806 53 221 2.0 6.0 0.00 0.00 0.00 91 1011.0
20260502112706 53 144 1.0 3.0 0.00 0.00 0.00 91 1011.1
20260502112619 53 203 1.0 3.0 0.00 0.00 0.00 91 1011.1
20260502112607 53 200 1.0 3.0 0.00 0.00 0.00 91 1011.1
20260502112501 53 226 1.0 3.0 0.00 0.00 0.00 91 1011.1
20260502112400 53 214 1.0 3.0 0.00 0.00 0.00 91 1011.0
20260502112300 53 146 1.0 6.0 0.00 0.00 0.00 91 1011.1
20260502112201 53 161 1.0 6.0 0.00 0.00 0.00 91 1011.0
20260502112117 53 221 1.0 6.0 0.00 0.00 0.00 91 1011.1
20260502112100 53 221 1.0 6.0 0.00 0.00 0.00 91 1011.1
20260502112000 53 217 1.0 6.0 0.00 0.00 0.00 91 1011.1
20260502111900 53 144 1.0 6.0 0.00 0.00 0.00 91 1011.0
20260502111800 53 217 1.0 6.0 0.00 0.00 0.00 91 1011.1
20260502111701 53 215 1.0 6.0 0.00 0.00 0.00 91 1011.1
20260502111615 53 228 1.0 6.0 0.00 0.00 0.00 90 1011.1
20260502111600 53 228 1.0 6.0 0.00 0.00 0.00 90 1011.1
20260502111500 54 248 2.0 6.0 0.00 0.00 0.00 90 1011.1
20260502111400 54 248 2.0 6.0 0.00 0.00 0.00 91 1011.0
20260502111259 54 246 2.0 5.0 0.00 0.00 0.00 90 1011.0
20260502111200 54 177 2.0 5.0 0.00 0.00 0.00 90 1011.0
20260502111117 54 203 2.0 5.0 0.00 0.00 0.00 90 1011.0
20260502111100 54 203 2.0 5.0 0.00 0.00 0.00 90 1011.0
20260502111001 54 214 1.0 5.0 0.00 0.00 0.00 90 1011.0
20260502110901 54 223 1.0 5.0 0.00 0.00 0.00 90 1011.0
20260502110758 54 200 1.0 6.0 0.00 0.00 0.00 90 1011.0
20260502110658 54 204 1.0 6.0 0.00 0.00 0.00 90 1011.0
20260502110616 54 215 1.0 6.0 0.00 0.00 0.00 90 1011.0
20260502110559 54 216 1.0 6.0 0.00 0.00 0.00 90 1011.0
20260502110458 54 226 1.0 6.0 0.00 0.00 0.00 90 1011.0
20260502110358 54 226 1.0 6.0 0.00 0.00 0.00 90 1011.0
20260502110258 54 214 1.0 6.0 0.00 0.00 0.00 90 1011.1
20260502110158 54 198 1.0 6.0 0.00 0.00 0.00 90 1011.0
20260502110115 54 195 1.0 6.0 0.00 0.00 0.00 90 1011.0
20260502110058 54 195 1.0 6.0 0.00 0.00 0.00 90 1011.0
20260502105958 54 228 1.0 6.0 0.00 0.00 0.00 90 1011.0
20260502105858 54 226 2.0 6.0 0.00 0.00 0.00 90 1011.0
20260502105758 54 170 2.0 5.0 0.00 0.00 0.00 90 1011.0
20260502105658 54 193 2.0 5.0 0.00 0.00 0.00 90 1011.0
20260502105617 54 183 2.0 5.0 0.00 0.00 0.00 90 1010.9
20260502105558 54 183 2.0 5.0 0.00 0.00 0.00 90 1010.9
20260502105458 54 226 2.0 5.0 0.00 0.00 0.00 90 1010.9
20260502105352 54 161 2.0 5.0 0.00 0.00 0.00 90 1011.0
20260502105252 54 236 2.0 5.0 0.00 0.00 0.00 90 1010.9
20260502105149 54 237 2.0 5.0 0.00 0.00 0.00 90 1011.0
20260502105121 54 236 2.0 6.0 0.00 0.00 0.00 90 1011.0
20260502105050 54 236 2.0 6.0 0.00 0.00 0.00 90 1011.0
20260502104950 54 233 2.0 6.0 0.00 0.00 0.00 90 1011.0
20260502104844 54 249 2.0 6.0 0.00 0.00 0.00 90 1011.0
20260502104744 54 204 2.0 6.0 0.00 0.00 0.00 90 1011.0
20260502104644 54 248 2.0 6.0 0.00 0.00 0.00 90 1011.0
20260502104614 54 176 2.0 6.0 0.00 0.00 0.00 90 1011.0
20260502104544 54 197 2.0 6.0 0.00 0.00 0.00 90 1011.0
20260502104443 54 248 2.0 6.0 0.00 0.00 0.00 90 1011.0
20260502104338 54 243 2.0 6.0 0.00 0.00 0.00 89 1011.0
20260502104237 54 235 2.0 6.0 0.00 0.00 0.00 89 1011.0
20260502104138 54 239 2.0 6.0 0.00 0.00 0.00 89 1011.0
20260502104113 54 236 2.0 6.0 0.00 0.00 0.00 89 1011.0
20260502104038 54 259 2.0 6.0 0.00 0.00 0.00 89 1011.0
20260502103938 54 257 2.0 6.0 0.00 0.00 0.00 89 1011.1
20260502103839 54 226 2.0 6.0 0.00 0.00 0.00 89 1011.0
20260502103738 54 225 2.0 5.0 0.00 0.00 0.00 89 1011.0
20260502103638 54 232 2.0 5.0 0.00 0.00 0.00 89 1011.0
20260502103613 54 243 2.0 5.0 0.00 0.00 0.00 89 1011.0
20260502103538 54 225 1.0 5.0 0.00 0.00 0.00 89 1011.0
20260502103438 54 228 1.0 5.0 0.00 0.00 0.00 89 1011.0
20260502103338 54 195 1.0 5.0 0.00 0.00 0.00 89 1011.0
20260502103238 54 212 1.0 5.0 0.00 0.00 0.00 89 1011.0
20260502103138 54 216 1.0 5.0 0.00 0.00 0.00 89 1011.0
20260502103112 54 229 1.0 5.0 0.00 0.00 0.00 89 1011.0
20260502103039 54 229 1.0 5.0 0.00 0.00 0.00 89 1010.9
20260502102938 54 229 1.0 5.0 0.00 0.00 0.00 89 1010.9
20260502102838 54 243 1.0 5.0 0.00 0.00 0.00 89 1011.0
20260502102739 54 219 1.0 3.0 0.00 0.00 0.00 89 1011.0
20260502102638 54 221 1.0 3.0 0.00 0.00 0.00 88 1011.0
20260502102610 54 248 1.0 3.0 0.00 0.00 0.00 88 1011.0
20260502102538 54 248 1.0 3.0 0.00 0.00 0.00 88 1011.0
20260502102437 54 248 1.0 3.0 0.00 0.00 0.00 88 1011.0
20260502102336 54 248 1.0 3.0 0.00 0.00 0.00 88 1011.0
20260502102235 54 248 1.0 3.0 0.00 0.00 0.00 88 1011.1
20260502102136 54 171 1.0 3.0 0.00 0.00 0.00 88 1011.0
20260502102110 54 214 1.0 3.0 0.00 0.00 0.00 88 1011.0
20260502102036 54 238 1.0 3.0 0.00 0.00 0.00 88 1011.1
20260502101936 54 223 1.0 3.0 0.00 0.00 0.00 88 1011.1
20260502101836 54 232 1.0 4.0 0.00 0.00 0.00 88 1011.0
20260502101735 54 235 1.0 4.0 0.00 0.00 0.00 88 1011.0
20260502101611 54 212 1.0 4.0 0.00 0.00 0.00 88 1011.0
20260502101534 55 212 1.0 4.0 0.00 0.00 0.00 88 1011.0
20260502101433 55 212 2.0 4.0 0.00 0.00 0.00 88 1011.0
20260502101334 55 212 2.0 4.0 0.00 0.00 0.00 87 1011.0
20260502101230 55 228 2.0 4.0 0.00 0.00 0.00 87 1011.0
20260502101130 55 231 2.0 4.0 0.00 0.00 0.00 87 1011.0
20260502101108 55 210 2.0 4.0 0.00 0.00 0.00 87 1011.0
20260502101030 55 216 2.0 4.0 0.00 0.00 0.00 87 1011.0
20260502100929 55 231 2.0 4.0 0.00 0.00 0.00 87 1011.0
20260502100828 55 234 2.0 4.0 0.00 0.00 0.00 87 1011.0
20260502100728 55 208 2.0 4.0 0.00 0.00 0.00 87 1010.9
20260502100628 55 230 2.0 4.0 0.00 0.00 0.00 87 1010.9
20260502100607 55 229 2.0 4.0 0.00 0.00 0.00 87 1010.9
20260502100528 55 229 2.0 4.0 0.00 0.00 0.00 87 1011.0
20260502100428 55 217 2.0 4.0 0.00 0.00 0.00 87 1010.9
20260502100332 55 160 2.0 4.0 0.00 0.00 0.00 86 1010.9
20260502100328 55 134 2.0 4.0 0.00 0.00 0.00 87 1010.9
20260502100232 55 219 2.0 4.0 0.00 0.00 0.00 87 1010.9
20260502100224 55 236 2.0 4.0 0.00 0.00 0.00 86 1010.9
20260502091517 55 132 0.0 2.0 0.00 0.00 0.00 86 1011.2
20260502091418 55 132 0.0 2.0 0.00 0.00 0.00 86 1011.1
20260502091318 55 132 0.0 2.0 0.00 0.00 0.00 86 1011.2
20260502091219 55 132 0.0 2.0 0.00 0.00 0.00 86 1011.2
20260502091103 55 132 0.0 2.0 0.00 0.00 0.00 86 1011.2
20260502091014 55 132 0.0 2.0 0.00 0.00 0.00 86 1011.2
20260502090914 55 132 0.0 2.0 0.00 0.00 0.00 86 1011.2
20260502090814 55 142 0.0 1.0 0.00 0.00 0.00 86 1011.2
20260502090714 55 143 0.0 1.0 0.00 0.00 0.00 86 1011.2
20260502090604 55 143 0.0 0.0 0.00 0.00 0.00 86 1011.2
20260502090514 55 143 0.0 0.0 0.00 0.00 0.00 86 1011.2
20260502090414 55 143 0.0 0.0 0.00 0.00 0.00 86 1011.2
20260502090314 55 144 0.0 0.0 0.00 0.00 0.00 85 1011.2
20260502090214 55 142 0.0 0.0 0.00 0.00 0.00 85 1011.2
20260502090119 55 143 0.0 0.0 0.00 0.00 0.00 85 1011.2
20260502090109 56 142 0.0 0.0 0.00 0.00 0.00 85 1011.2
20260502071450 58 120 1.0 2.0 0.00 0.00 0.00 83 1011.4
20260502071350 58 118 0.0 2.0 0.00 0.00 0.00 83 1011.3
20260502071250 58 131 0.0 2.0 0.00 0.00 0.00 83 1011.3
20260502071150 58 145 0.0 2.0 0.00 0.00 0.00 82 1011.3
20260502071050 58 145 0.0 2.0 0.00 0.00 0.00 82 1011.3
20260502070950 58 145 0.0 2.0 0.00 0.00 0.00 82 1011.3
20260502070850 58 186 0.0 3.0 0.00 0.00 0.00 82 1011.3
20260502070824 58 219 1.0 3.0 0.00 0.00 0.00 82 1011.3
20260502070750 58 186 1.0 3.0 0.00 0.00 0.00 82 1011.3
20260502070710 58 181 1.0 3.0 0.00 0.00 0.00 82 1011.3
20260502070551 58 219 1.0 3.0 0.00 0.00 0.00 82 1011.3
20260502070450 58 219 1.0 3.0 0.00 0.00 0.00 82 1011.3
20260502070346 58 219 1.0 3.0 0.00 0.00 0.00 82 1011.3
20260502070246 58 219 1.0 3.0 0.00 0.00 0.00 82 1011.3
20260502070145 59 221 1.0 3.0 0.00 0.00 0.00 82 1011.3
20260502070107 59 221 1.0 4.0 0.00 0.00 0.00 82 1011.3
20260502070046 59 168 1.0 4.0 0.00 0.00 0.00 82 1011.2
20260502065947 59 194 2.0 6.0 0.00 0.00 0.00 82 1011.3
20260502065846 59 165 2.0 6.0 0.00 0.00 0.00 82 1011.2
20260502065746 59 155 2.0 6.0 0.00 0.00 0.00 82 1011.2
20260502065647 59 219 2.0 6.0 0.00 0.00 0.00 82 1011.2
20260502065546 59 210 2.0 6.0 0.00 0.00 0.00 82 1011.2
20260502065446 59 193 2.0 6.0 0.00 0.00 0.00 82 1011.2
20260502065345 59 193 2.0 6.0 0.00 0.00 0.00 82 1011.2
20260502065244 59 200 2.0 6.0 0.00 0.00 0.00 82 1011.2
20260502065138 59 228 1.0 6.0 0.00 0.00 0.00 82 1011.2
20260502065100 59 229 1.0 6.0 0.00 0.00 0.00 82 1011.2
20260502065039 59 231 1.0 6.0 0.00 0.00 0.00 82 1011.2
20260502064938 59 223 1.0 5.0 0.00 0.00 0.00 82 1011.2
20260502064838 59 235 0.0 5.0 0.00 0.00 0.00 82 1011.2
20260502064739 59 217 0.0 3.0 0.00 0.00 0.00 82 1011.2
20260502064636 59 219 0.0 2.0 0.00 0.00 0.00 82 1011.2
20260502064536 59 160 0.0 2.0 0.00 0.00 0.00 82 1011.2
20260502064436 59 161 0.0 2.0 0.00 0.00 0.00 82 1011.2
20260502064335 59 160 0.0 2.0 0.00 0.00 0.00 82 1011.2
20260502064309 59 211 0.0 1.0 0.00 0.00 0.00 82 1011.2
20260502064233 59 117 0.0 1.0 0.00 0.00 0.00 82 1011.2
20260502064158 59 117 0.0 1.0 0.00 0.00 0.00 82 1011.2
20260502064026 59 212 0.0 1.0 0.00 0.00 0.00 82 1011.2
20260502063926 59 211 0.0 1.0 0.00 0.00 0.00 82 1011.2
20260502063826 59 212 0.0 1.0 0.00 0.00 0.00 82 1011.2
20260502063727 59 211 0.0 1.0 0.00 0.00 0.00 82 1011.2
20260502063627 59 175 0.0 1.0 0.00 0.00 0.00 82 1011.2
20260502063525 59 175 0.0 2.0 0.00 0.00 0.00 82 1011.2
20260502063424 59 133 0.0 2.0 0.00 0.00 0.00 81 1011.2
20260502063322 59 132 0.0 2.0 0.00 0.00 0.00 82 1011.2
20260502063220 59 134 0.0 2.0 0.00 0.00 0.00 82 1011.2
20260502063121 59 134 0.0 2.0 0.00 0.00 0.00 81 1011.2
20260502063018 59 134 0.0 2.0 0.00 0.00 0.00 81 1011.1
20260502062923 59 146 0.0 2.0 0.00 0.00 0.00 81 1011.2
20260502062816 60 146 0.0 2.0 0.00 0.00 0.00 81 1011.2
20260502062714 60 146 0.0 2.0 0.00 0.00 0.00 81 1011.2
20260502062614 60 133 0.0 2.0 0.00 0.00 0.00 81 1011.2
20260502062512 60 132 0.0 2.0 0.00 0.00 0.00 81 1011.1
20260502062412 60 132 0.0 1.0 0.00 0.00 0.00 81 1011.1
20260502062310 60 132 0.0 1.0 0.00 0.00 0.00 81 1011.1
20260502062208 60 132 0.0 2.0 0.00 0.00 0.00 80 1011.1
20260502062106 60 132 0.0 2.0 0.00 0.00 0.00 80 1011.1
20260502062028 60 133 1.0 2.0 0.00 0.00 0.00 80 1011.1
20260502062006 60 132 1.0 2.0 0.00 0.00 0.00 80 1011.1
20260502061906 60 133 1.0 4.0 0.00 0.00 0.00 80 1011.1
20260502061805 60 132 1.0 4.0 0.00 0.00 0.00 80 1011.1
20260502061752 60 225 1.0 5.0 0.00 0.00 0.00 80 1011.1
20260502061702 60 132 1.0 4.0 0.00 0.00 0.00 80 1011.1
20260502061558 60 151 1.0 5.0 0.00 0.00 0.00 80 1011.1
20260502061457 60 225 1.0 5.0 0.00 0.00 0.00 80 1011.1
20260502061356 60 225 2.0 5.0 0.00 0.00 0.00 80 1011.1
20260502061300 60 221 2.0 5.0 0.00 0.00 0.00 80 1011.1
20260502061251 60 210 2.0 7.0 0.00 0.00 0.00 80 1011.1
20260502061157 60 223 2.0 7.0 0.00 0.00 0.00 80 1011.1
20260502061136 60 228 2.0 7.0 0.00 0.00 0.00 80 1011.1
20260502060954 60 219 2.0 7.0 0.00 0.00 0.00 79 1011.1
20260502060854 60 229 2.0 7.0 0.00 0.00 0.00 79 1011.1
20260502060752 60 229 2.0 7.0 0.00 0.00 0.00 79 1011.0
20260502060650 60 248 2.0 7.0 0.00 0.00 0.00 79 1011.0
20260502060525 60 236 2.0 7.0 0.00 0.00 0.00 79 1011.0
20260502060444 60 233 2.0 7.0 0.00 0.00 0.00 79 1011.1
20260502060344 61 237 2.0 7.0 0.00 0.00 0.00 79 1011.1
20260502060245 61 245 2.0 7.0 0.00 0.00 0.00 79 1011.1
20260502060144 61 193 2.0 7.0 0.00 0.00 0.00 79 1011.1
20260502060044 61 225 2.0 7.0 0.00 0.00 0.00 79 1011.1
20260502060026 61 219 2.0 7.0 0.00 0.00 0.00 79 1011.1
20260502055942 61 229 2.0 7.0 0.00 0.00 0.00 79 1011.1
20260502055842 61 234 2.0 7.0 0.00 0.00 0.00 79 1011.1
20260502055741 61 217 2.0 7.0 0.00 0.00 0.00 79 1011.0
20260502055640 61 222 2.0 7.0 0.00 0.00 0.00 79 1011.1
20260502055534 61 235 2.0 7.0 0.00 0.00 0.00 79 1011.1
20260502055524 61 250 2.0 7.0 0.00 0.00 0.00 79 1011.1
20260502055432 61 204 2.0 7.0 0.00 0.00 0.00 79 1011.0
20260502055333 61 194 2.0 7.0 0.00 0.00 0.00 79 1011.1
20260502055232 61 230 2.0 7.0 0.00 0.00 0.00 79 1011.1
20260502055132 61 135 2.0 7.0 0.00 0.00 0.00 79 1011.1
20260502055022 61 217 2.0 7.0 0.00 0.00 0.00 79 1011.1
20260502054926 61 211 2.0 7.0 0.00 0.00 0.00 79 1011.1
20260502054826 61 232 2.0 7.0 0.00 0.00 0.00 79 1011.1
20260502054745 61 226 2.0 8.0 0.00 0.00 0.00 79 1011.1
20260502054728 61 204 2.0 8.0 0.00 0.00 0.00 79 1011.1
20260502054642 61 227 2.0 8.0 0.00 0.00 0.00 79 1011.1
20260502054632 61 226 2.0 8.0 0.00 0.00 0.00 79 1011.1
20260502054424 61 249 2.0 8.0 0.00 0.00 0.00 79 1011.1
20260502054322 61 232 3.0 8.0 0.00 0.00 0.00 79 1011.0
20260502054223 61 238 3.0 8.0 0.00 0.00 0.00 79 1011.1
20260502054120 61 222 3.0 8.0 0.00 0.00 0.00 79 1011.1
20260502054036 61 228 3.0 8.0 0.00 0.00 0.00 79 1011.1
20260502053914 61 240 3.0 8.0 0.00 0.00 0.00 79 1011.1
20260502053814 62 217 3.0 8.0 0.00 0.00 0.00 79 1011.0
20260502053715 62 253 3.0 8.0 0.00 0.00 0.00 79 1011.1
20260502053614 62 205 3.0 8.0 0.00 0.00 0.00 79 1011.1
20260502053520 62 218 4.0 11.0 0.00 0.00 0.00 79 1011.1
20260502053510 62 239 4.0 11.0 0.00 0.00 0.00 79 1011.1
20260502053408 62 200 4.0 11.0 0.00 0.00 0.00 79 1011.1
20260502053308 62 238 4.0 11.0 0.00 0.00 0.00 78 1011.1
20260502053208 62 232 4.0 11.0 0.00 0.00 0.00 78 1011.1
20260502053108 62 155 4.0 11.0 0.00 0.00 0.00 78 1011.1
20260502053021 62 219 4.0 11.0 0.00 0.00 0.00 78 1011.1
20260502053004 62 217 4.0 11.0 0.00 0.00 0.00 78 1011.1
20260502052903 62 226 4.0 11.0 0.00 0.00 0.00 78 1011.1
20260502052802 62 242 4.0 11.0 0.00 0.00 0.00 78 1011.1
20260502052745 62 233 3.0 10.0 0.00 0.00 0.00 78 1011.1
20260502052702 62 240 4.0 11.0 0.00 0.00 0.00 78 1011.1
20260502052630 62 210 4.0 11.0 0.00 0.00 0.00 78 1011.1
20260502052457 62 208 3.0 10.0 0.00 0.00 0.00 78 1011.1
20260502052356 62 246 3.0 9.0 0.00 0.00 0.00 78 1011.1
20260502052256 62 174 3.0 9.0 0.00 0.00 0.00 78 1011.0
20260502052156 62 243 3.0 9.0 0.00 0.00 0.00 78 1011.1
20260502052056 62 253 3.0 9.0 0.00 0.00 0.00 78 1011.0
20260502052019 62 240 3.0 9.0 0.00 0.00 0.00 78 1011.0
20260502051950 62 240 3.0 9.0 0.00 0.00 0.00 78 1011.0
20260502051850 62 228 3.0 9.0 0.00 0.00 0.00 78 1011.0
20260502051750 62 225 3.0 9.0 0.00 0.00 0.00 78 1011.0
20260502051651 62 228 3.0 9.0 0.00 0.00 0.00 78 1011.0
20260502051550 62 250 3.0 9.0 0.00 0.00 0.00 78 1011.0
20260502051519 62 237 3.0 9.0 0.00 0.00 0.00 78 1011.0
20260502051444 62 217 4.0 9.0 0.00 0.00 0.00 78 1011.0
20260502051344 62 211 4.0 9.0 0.00 0.00 0.00 77 1011.0
20260502051252 62 234 4.0 9.0 0.00 0.00 0.00 77 1011.0
20260502051245 62 236 4.0 9.0 0.00 0.00 0.00 77 1011.0
20260502051144 62 229 4.0 9.0 0.00 0.00 0.00 77 1011.0
20260502051129 62 238 4.0 9.0 0.00 0.00 0.00 77 1011.0
20260502050943 63 228 4.0 9.0 0.00 0.00 0.00 77 1011.0
20260502050843 63 232 4.0 9.0 0.00 0.00 0.00 77 1011.0
20260502050742 63 190 4.0 9.0 0.00 0.00 0.00 77 1011.0
20260502050642 63 233 4.0 9.0 0.00 0.00 0.00 77 1010.9
20260502050543 63 203 4.0 9.0 0.00 0.00 0.00 77 1010.9
20260502050528 63 223 4.0 9.0 0.00 0.00 0.00 77 1010.9
20260502050443 63 242 4.0 9.0 0.00 0.00 0.00 77 1011.0
20260502050342 63 264 4.0 10.0 0.00 0.00 0.00 77 1011.0
20260502050242 63 224 4.0 10.0 0.00 0.00 0.00 77 1011.0
20260502050144 63 236 4.0 10.0 0.00 0.00 0.00 77 1011.0
20260502050043 63 245 4.0 10.0 0.00 0.00 0.00 77 1010.9
20260502050017 63 237 4.0 10.0 0.00 0.00 0.00 77 1010.9
20260502045944 63 229 4.0 10.0 0.00 0.00 0.00 77 1010.9
20260502045842 63 212 4.0 10.0 0.00 0.00 0.00 77 1010.9
20260502045744 63 232 4.0 10.0 0.00 0.00 0.00 77 1011.0
20260502045642 63 246 4.0 10.0 0.00 0.00 0.00 77 1011.0
20260502045542 63 224 4.0 10.0 0.00 0.00 0.00 76 1011.0
20260502045518 63 248 4.0 10.0 0.00 0.00 0.00 76 1011.0
20260502045442 63 233 4.0 10.0 0.00 0.00 0.00 76 1011.0
20260502045344 63 255 4.0 8.0 0.00 0.00 0.00 77 1011.0
20260502045244 64 239 4.0 8.0 0.00 0.00 0.00 76 1010.9
20260502045237 63 243 4.0 8.0 0.00 0.00 0.00 77 1011.0
20260502045226 64 235 4.0 9.0 0.00 0.00 0.00 76 1010.9
20260502045137 64 266 4.0 8.0 0.00 0.00 0.00 76 1011.0
20260502045127 64 228 4.0 8.0 0.00 0.00 0.00 76 1010.9
20260502044936 64 262 4.0 8.0 0.00 0.00 0.00 76 1010.9
20260502044849 64 246 4.0 9.0 0.00 0.00 0.00 76 1011.0
20260502044733 64 226 4.0 9.0 0.00 0.00 0.00 76 1011.0
20260502044630 64 236 4.0 9.0 0.00 0.00 0.00 76 1010.9
20260502044620 64 232 4.0 9.0 0.00 0.00 0.00 76 1010.9
20260502044431 64 225 4.0 9.0 0.00 0.00 0.00 76 1010.9
20260502044330 64 235 4.0 9.0 0.00 0.00 0.00 76 1010.9
20260502044227 64 236 4.0 9.0 0.00 0.00 0.00 76 1010.9
20260502044124 64 224 4.0 9.0 0.00 0.00 0.00 76 1010.9
20260502044024 64 229 4.0 9.0 0.00 0.00 0.00 76 1010.8
20260502044005 64 219 4.0 9.0 0.00 0.00 0.00 76 1010.8
20260502043925 64 217 4.0 9.0 0.00 0.00 0.00 75 1010.9
20260502043825 64 240 4.0 9.0 0.00 0.00 0.00 76 1010.9
20260502043723 64 219 4.0 9.0 0.00 0.00 0.00 75 1010.9
20260502043622 64 239 4.0 9.0 0.00 0.00 0.00 75 1010.9
20260502043522 65 228 4.0 9.0 0.00 0.00 0.00 75 1010.9
20260502043458 65 212 4.0 9.0 0.00 0.00 0.00 75 1010.9
20260502043420 65 212 4.0 9.0 0.00 0.00 0.00 75 1010.8
20260502043319 65 242 4.0 9.0 0.00 0.00 0.00 75 1010.9
20260502043213 65 228 4.0 9.0 0.00 0.00 0.00 75 1010.8
20260502043112 65 256 4.0 9.0 0.00 0.00 0.00 75 1010.8
20260502043012 65 250 4.0 9.0 0.00 0.00 0.00 75 1010.8
20260502042952 65 226 4.0 9.0 0.00 0.00 0.00 75 1010.8
20260502042912 65 250 4.0 9.0 0.00 0.00 0.00 75 1010.8
20260502042813 65 242 4.0 9.0 0.00 0.00 0.00 75 1010.8
20260502042706 65 250 4.0 8.0 0.00 0.00 0.00 75 1010.8
20260502042606 65 231 4.0 8.0 0.00 0.00 0.00 75 1010.8
20260502042507 65 253 3.0 8.0 0.00 0.00 0.00 75 1010.8
20260502042447 65 248 3.0 8.0 0.00 0.00 0.00 75 1010.7
20260502042407 65 240 3.0 8.0 0.00 0.00 0.00 75 1010.7
20260502042306 65 218 3.0 8.0 0.00 0.00 0.00 75 1010.7
20260502042202 65 225 3.0 8.0 0.00 0.00 0.00 74 1010.7
20260502042101 65 264 3.0 7.0 0.00 0.00 0.00 75 1010.7
20260502042000 66 231 3.0 9.0 0.00 0.00 0.00 74 1010.7
20260502041941 66 200 3.0 9.0 0.00 0.00 0.00 74 1010.7
20260502041900 66 240 3.0 9.0 0.00 0.00 0.00 74 1010.7
20260502041800 66 236 3.0 9.0 0.00 0.00 0.00 74 1010.6
20260502041654 66 230 3.0 10.0 0.00 0.00 0.00 74 1010.7
20260502041554 66 217 3.0 10.0 0.00 0.00 0.00 74 1010.6
20260502041454 66 222 3.0 10.0 0.00 0.00 0.00 74 1010.6
20260502041433 66 235 3.0 10.0 0.00 0.00 0.00 74 1010.7
20260502041354 66 243 3.0 10.0 0.00 0.00 0.00 74 1010.7
20260502041254 66 222 4.0 10.0 0.00 0.00 0.00 74 1010.6
20260502041148 66 269 4.0 10.0 0.00 0.00 0.00 74 1010.6
20260502041128 66 257 4.0 10.0 0.00 0.00 0.00 73 1010.6
20260502041055 66 268 4.0 10.0 0.00 0.00 0.00 73 1010.6
20260502041047 66 224 4.0 10.0 0.00 0.00 0.00 73 1010.7
20260502041036 66 245 4.0 10.0 0.00 0.00 0.00 73 1010.7
20260502040848 66 259 4.0 10.0 0.00 0.00 0.00 73 1010.7
20260502040757 66 225 4.0 10.0 0.00 0.00 0.00 73 1010.7
20260502040642 66 217 4.0 10.0 0.00 0.00 0.00 73 1010.6
20260502040543 66 212 4.0 10.0 0.00 0.00 0.00 73 1010.6
20260502040533 66 241 4.0 10.0 0.00 0.00 0.00 73 1010.6
20260502040342 66 241 4.0 10.0 0.00 0.00 0.00 73 1010.6
20260502040242 67 248 4.0 10.0 0.00 0.00 0.00 73 1010.6
20260502040143 67 262 3.0 8.0 0.00 0.00 0.00 73 1010.5
20260502040137 67 274 4.0 10.0 0.00 0.00 0.00 73 1010.4
20260502040038 67 208 4.0 10.0 0.00 0.00 0.00 73 1010.4
20260502040029 67 238 3.0 10.0 0.00 0.00 0.00 73 1010.5
20260502035836 67 240 4.0 8.0 0.00 0.00 0.00 73 1010.4
20260502035736 67 243 3.0 8.0 0.00 0.00 0.00 72 1010.4
20260502035639 67 174 4.0 8.0 0.00 0.00 0.00 72 1010.4
20260502035630 67 226 4.0 8.0 0.00 0.00 0.00 72 1010.4
20260502035531 67 233 4.0 8.0 0.00 0.00 0.00 72 1010.4
20260502035523 67 223 4.0 8.0 0.00 0.00 0.00 72 1010.4
20260502035331 67 235 4.0 8.0 0.00 0.00 0.00 72 1010.4
20260502035230 67 239 4.0 8.0 0.00 0.00 0.00 72 1010.3
20260502035131 68 250 4.0 8.0 0.00 0.00 0.00 71 1010.3
20260502035125 68 236 4.0 8.0 0.00 0.00 0.00 72 1010.3
20260502035032 68 242 4.0 8.0 0.00 0.00 0.00 71 1010.3
20260502035024 68 263 4.0 8.0 0.00 0.00 0.00 71 1010.3
20260502034824 68 259 4.0 8.0 0.00 0.00 0.00 71 1010.3
20260502034727 68 240 4.0 8.0 0.00 0.00 0.00 71 1010.3
20260502034620 68 226 4.0 8.0 0.00 0.00 0.00 71 1010.3
20260502034519 68 240 4.0 11.0 0.00 0.00 0.00 70 1010.2
20260502034418 68 250 4.0 11.0 0.00 0.00 0.00 70 1010.3
20260502034358 69 256 4.0 11.0 0.00 0.00 0.00 70 1010.3
20260502034319 69 233 3.0 11.0 0.00 0.00 0.00 70 1010.3
20260502034218 69 243 4.0 11.0 0.00 0.00 0.00 70 1010.2
20260502034112 69 222 4.0 11.0 0.00 0.00 0.00 70 1010.2
20260502034012 69 219 4.0 11.0 0.00 0.00 0.00 70 1010.2
20260502033912 69 240 4.0 11.0 0.00 0.00 0.00 69 1010.2
20260502033855 69 222 4.0 11.0 0.00 0.00 0.00 69 1010.2
20260502033812 69 221 4.0 11.0 0.00 0.00 0.00 69 1010.2
20260502033712 69 188 4.0 11.0 0.00 0.00 0.00 69 1010.2
20260502033608 69 226 4.0 11.0 0.00 0.00 0.00 69 1010.2
20260502033510 69 250 3.0 8.0 0.00 0.00 0.00 69 1010.2
20260502033409 69 246 3.0 8.0 0.00 0.00 0.00 69 1010.1
20260502033347 69 231 3.0 8.0 0.00 0.00 0.00 69 1010.1
20260502033309 69 242 3.0 9.0 0.00 0.00 0.00 69 1010.1
20260502033100 70 246 3.0 9.0 0.00 0.00 0.00 68 1010.0
20260502033000 70 241 3.0 9.0 0.00 0.00 0.00 68 1010.0
20260502032900 70 215 3.0 9.0 0.00 0.00 0.00 68 1010.0
20260502032840 70 245 3.0 9.0 0.00 0.00 0.00 68 1010.0
20260502032800 70 222 3.0 9.0 0.00 0.00 0.00 68 1010.0
20260502032700 70 236 4.0 9.0 0.00 0.00 0.00 68 1010.0
20260502032554 70 236 4.0 9.0 0.00 0.00 0.00 68 1010.0
20260502032455 70 235 4.0 9.0 0.00 0.00 0.00 67 1010.0
20260502032354 70 246 4.0 9.0 0.00 0.00 0.00 67 1010.0
20260502032335 70 203 4.0 9.0 0.00 0.00 0.00 67 1010.0
20260502032254 70 253 4.0 9.0 0.00 0.00 0.00 67 1010.0
20260502032154 70 235 4.0 9.0 0.00 0.00 0.00 67 1010.0
20260502032059 71 243 4.0 9.0 0.00 0.00 0.00 67 1009.9
20260502032050 70 264 4.0 9.0 0.00 0.00 0.00 68 1009.9
20260502031950 70 232 4.0 9.0 0.00 0.00 0.00 67 1009.9
20260502031939 71 253 4.0 9.0 0.00 0.00 0.00 67 1009.9
20260502031749 71 231 4.0 9.0 0.00 0.00 0.00 67 1009.9
20260502031649 71 239 3.0 9.0 0.00 0.00 0.00 67 1009.9
20260502031542 71 228 3.0 7.0 0.00 0.00 0.00 67 1009.9
20260502031442 71 213 4.0 8.0 0.00 0.00 0.00 67 1009.8
20260502031343 71 204 4.0 8.0 0.00 0.00 0.00 67 1009.9
20260502031323 71 215 4.0 8.0 0.00 0.00 0.00 67 1009.9
20260502031242 71 229 3.0 8.0 0.00 0.00 0.00 66 1009.9
20260502031142 71 233 3.0 8.0 0.00 0.00 0.00 66 1009.9
20260502031046 71 245 3.0 8.0 0.00 0.00 0.00 65 1009.9
20260502031038 71 245 3.0 8.0 0.00 0.00 0.00 66 1009.8
20260502030939 71 239 3.0 8.0 0.00 0.00 0.00 66 1009.8
20260502030926 71 233 3.0 8.0 0.00 0.00 0.00 65 1009.9
20260502030738 71 232 3.0 8.0 0.00 0.00 0.00 65 1009.8
20260502030637 72 228 4.0 8.0 0.00 0.00 0.00 65 1009.8
20260502030540 72 243 4.0 9.0 0.00 0.00 0.00 65 1009.8
20260502030530 72 246 4.0 8.0 0.00 0.00 0.00 65 1009.8
20260502030431 72 217 3.0 9.0 0.00 0.00 0.00 65 1009.8
20260502030421 72 235 4.0 9.0 0.00 0.00 0.00 65 1009.8
20260502030230 72 241 4.0 9.0 0.00 0.00 0.00 65 1009.8
20260502030131 72 215 4.0 9.0 0.00 0.00 0.00 65 1009.8
20260502030024 72 238 4.0 9.0 0.00 0.00 0.00 65 1009.8
20260502025924 72 245 4.0 9.0 0.00 0.00 0.00 65 1009.8
20260502025825 72 240 4.0 9.0 0.00 0.00 0.00 65 1009.8
20260502025811 72 231 4.0 9.0 0.00 0.00 0.00 65 1009.8
20260502025727 72 236 4.0 9.0 0.00 0.00 0.00 65 1009.8
20260502025624 72 193 4.0 9.0 0.00 0.00 0.00 65 1009.8
20260502025520 72 245 4.0 9.0 0.00 0.00 0.00 65 1009.7
20260502025418 72 236 4.0 10.0 0.00 0.00 0.00 65 1009.8
20260502025321 72 234 4.0 10.0 0.00 0.00 0.00 64 1009.7
20260502025310 72 236 4.0 10.0 0.00 0.00 0.00 64 1009.7
20260502025218 72 233 4.0 10.0 0.00 0.00 0.00 64 1009.7
20260502025118 73 216 4.0 10.0 0.00 0.00 0.00 64 1009.7
20260502025013 73 235 4.0 10.0 0.00 0.00 0.00 64 1009.7
20260502024912 73 224 5.0 10.0 0.00 0.00 0.00 63 1009.7
20260502024817 73 228 5.0 10.0 0.00 0.00 0.00 63 1009.7
20260502024713 73 245 5.0 10.0 0.00 0.00 0.00 63 1009.7
20260502024612 73 210 5.0 10.0 0.00 0.00 0.00 63 1009.8
20260502024507 73 231 5.0 11.0 0.00 0.00 0.00 63 1009.7
20260502024406 73 228 5.0 11.0 0.00 0.00 0.00 62 1009.8
20260502024313 73 235 5.0 11.0 0.00 0.00 0.00 62 1009.8
20260502024307 73 232 5.0 11.0 0.00 0.00 0.00 62 1009.8
20260502024206 73 194 5.0 11.0 0.00 0.00 0.00 62 1009.7
20260502024106 73 233 5.0 11.0 0.00 0.00 0.00 61 1009.8
20260502024000 73 222 5.0 11.0 0.00 0.00 0.00 61 1009.8
20260502023900 73 229 5.0 11.0 0.00 0.00 0.00 61 1009.8
20260502023807 74 295 5.0 11.0 0.00 0.00 0.00 61 1009.8
20260502023800 74 239 5.0 11.0 0.00 0.00 0.00 61 1009.8
20260502023701 74 243 5.0 11.0 0.00 0.00 0.00 61 1009.7
20260502023600 74 191 5.0 11.0 0.00 0.00 0.00 61 1009.8
20260502023527 74 262 5.0 9.0 0.00 0.00 0.00 60 1009.7
20260502023456 74 235 5.0 9.0 0.00 0.00 0.00 61 1009.7
20260502023420 74 242 5.0 9.0 0.00 0.00 0.00 60 1009.7
20260502023256 74 224 5.0 9.0 0.00 0.00 0.00 60 1009.7
20260502023156 74 235 4.0 9.0 0.00 0.00 0.00 60 1009.7
20260502023054 74 211 4.0 8.0 0.00 0.00 0.00 60 1009.6
20260502022950 74 218 4.0 8.0 0.00 0.00 0.00 59 1009.6
20260502022849 74 233 4.0 8.0 0.00 0.00 0.00 59 1009.6
20260502022807 74 228 4.0 9.0 0.00 0.00 0.00 59 1009.6
20260502022748 74 252 4.0 9.0 0.00 0.00 0.00 59 1009.6
20260502022648 74 226 4.0 9.0 0.00 0.00 0.00 59 1009.6
20260502022548 74 233 4.0 9.0 0.00 0.00 0.00 58 1009.6
20260502022443 74 210 3.0 9.0 0.00 0.00 0.00 58 1009.6
20260502022342 74 210 3.0 9.0 0.00 0.00 0.00 58 1009.6
20260502022308 74 239 3.0 9.0 0.00 0.00 0.00 58 1009.6
20260502022254 75 224 3.0 10.0 0.00 0.00 0.00 57 1009.6
20260502022242 74 262 3.0 9.0 0.00 0.00 0.00 58 1009.6
20260502022147 74 208 3.0 9.0 0.00 0.00 0.00 58 1009.6
20260502022138 75 198 3.0 10.0 0.00 0.00 0.00 58 1009.6
20260502021938 75 217 3.0 10.0 0.00 0.00 0.00 57 1009.6
20260502021919 75 253 3.0 10.0 0.00 0.00 0.00 57 1009.6
20260502021737 75 238 3.0 10.0 0.00 0.00 0.00 57 1009.6
20260502021636 75 226 3.0 10.0 0.00 0.00 0.00 56 1009.5
20260502021536 75 225 3.0 10.0 0.00 0.00 0.00 56 1009.6
20260502021430 75 245 3.0 10.0 0.00 0.00 0.00 56 1009.6
20260502021330 75 224 3.0 10.0 0.00 0.00 0.00 56 1009.6
20260502021308 75 264 3.0 10.0 0.00 0.00 0.00 55 1009.6
20260502021230 75 219 3.0 10.0 0.00 0.00 0.00 56 1009.6
20260502021130 75 250 2.0 8.0 0.00 0.00 0.00 56 1009.6
20260502021030 75 221 2.0 8.0 0.00 0.00 0.00 56 1009.6
20260502020926 75 203 2.0 8.0 0.00 0.00 0.00 56 1009.5
20260502020807 75 212 2.0 8.0 0.00 0.00 0.00 56 1009.6
20260502020727 76 208 2.0 8.0 0.00 0.00 0.00 55 1009.6
20260502020627 76 212 2.0 8.0 0.00 0.00 0.00 55 1009.5
20260502020530 76 218 3.0 6.0 0.00 0.00 0.00 55 1009.5
20260502020524 76 224 2.0 6.0 0.00 0.00 0.00 55 1009.5
20260502020427 76 181 3.0 6.0 0.00 0.00 0.00 55 1009.5
20260502020419 76 229 3.0 6.0 0.00 0.00 0.00 55 1009.5
20260502020218 76 236 3.0 6.0 0.00 0.00 0.00 55 1009.6
20260502020118 76 239 3.0 6.0 0.00 0.00 0.00 54 1009.5
20260502020018 76 233 3.0 6.0 0.00 0.00 0.00 54 1009.6
20260502015919 76 233 3.0 6.0 0.00 0.00 0.00 54 1009.5
20260502015818 76 217 4.0 6.0 0.00 0.00 0.00 54 1009.5
20260502015807 76 161 4.0 6.0 0.00 0.00 0.00 54 1009.5
20260502015717 76 228 4.0 6.0 0.00 0.00 0.00 53 1009.5
20260502015616 76 222 3.0 6.0 0.00 0.00 0.00 53 1009.5
20260502015516 76 204 3.0 6.0 0.00 0.00 0.00 53 1009.5
20260502015416 76 231 3.0 6.0 0.00 0.00 0.00 53 1009.6
20260502015308 76 245 3.0 6.0 0.00 0.00 0.00 52 1009.5
20260502015213 76 239 3.0 6.0 0.00 0.00 0.00 53 1009.5
20260502015112 76 158 3.0 6.0 0.00 0.00 0.00 52 1009.5
20260502015012 76 238 3.0 6.0 0.00 0.00 0.00 52 1009.5
20260502014914 76 239 3.0 6.0 0.00 0.00 0.00 52 1009.6
20260502014829 76 160 3.0 9.0 0.00 0.00 0.00 52 1009.6
20260502014819 76 162 3.0 9.0 0.00 0.00 0.00 52 1009.6
20260502014710 76 221 3.0 9.0 0.00 0.00 0.00 51 1009.5
20260502014611 76 243 3.0 9.0 0.00 0.00 0.00 51 1009.6
20260502014526 76 250 3.0 9.0 0.00 0.00 0.00 50 1009.6
20260502014510 76 215 3.0 9.0 0.00 0.00 0.00 51 1009.6
20260502014425 76 250 3.0 9.0 0.00 0.00 0.00 50 1009.6
20260502014416 76 250 3.0 9.0 0.00 0.00 0.00 50 1009.6
20260502014211 76 233 3.0 9.0 0.00 0.00 0.00 50 1009.6
20260502014108 76 232 3.0 9.0 0.00 0.00 0.00 49 1009.6
20260502014009 76 235 3.0 9.0 0.00 0.00 0.00 49 1009.7
20260502013908 76 231 3.0 9.0 0.00 0.00 0.00 49 1009.7
20260502013811 76 226 3.0 8.0 0.00 0.00 0.00 49 1009.7
20260502013703 77 231 3.0 7.0 0.00 0.00 0.00 49 1009.7
20260502013603 77 207 3.0 7.0 0.00 0.00 0.00 48 1009.7
20260502013502 77 223 3.0 7.0 0.00 0.00 0.00 48 1009.7
20260502013402 77 240 3.0 7.0 0.00 0.00 0.00 48 1009.7
20260502013304 77 240 3.0 7.0 0.00 0.00 0.00 48 1009.7
20260502013156 77 228 3.0 7.0 0.00 0.00 0.00 48 1009.7
20260502013056 77 239 3.0 7.0 0.00 0.00 0.00 48 1009.6
20260502012957 77 225 3.0 7.0 0.00 0.00 0.00 48 1009.7
20260502012856 77 240 3.0 7.0 0.00 0.00 0.00 49 1009.7
20260502012804 77 224 3.0 7.0 0.00 0.00 0.00 49 1009.7
20260502012756 77 221 3.0 7.0 0.00 0.00 0.00 49 1009.7
20260502012653 77 184 4.0 8.0 0.00 0.00 0.00 49 1009.7
20260502012551 77 210 4.0 8.0 0.00 0.00 0.00 49 1009.6
20260502012450 77 236 4.0 8.0 0.00 0.00 0.00 48 1009.7
20260502012350 77 255 4.0 8.0 0.00 0.00 0.00 48 1009.7
20260502012257 77 239 4.0 8.0 0.00 0.00 0.00 47 1009.7
20260502012250 77 225 4.0 8.0 0.00 0.00 0.00 47 1009.7
20260502012144 77 137 3.0 8.0 0.00 0.00 0.00 47 1009.7
20260502012044 77 219 3.0 8.0 0.00 0.00 0.00 48 1009.7
20260502011945 77 269 3.0 8.0 0.00 0.00 0.00 48 1009.7
20260502011844 77 229 3.0 8.0 0.00 0.00 0.00 48 1009.7
20260502011758 77 232 3.0 8.0 0.00 0.00 0.00 48 1009.7
20260502011743 77 238 2.0 8.0 0.00 0.00 0.00 48 1009.7
20260502011641 77 259 2.0 8.0 0.00 0.00 0.00 50 1009.7
20260502011540 77 222 2.0 7.0 0.00 0.00 0.00 50 1009.7
20260502011440 77 218 2.0 7.0 0.00 0.00 0.00 50 1009.7
20260502011341 77 218 3.0 7.0 0.00 0.00 0.00 51 1009.7
20260502011258 78 242 3.0 7.0 0.00 0.00 0.00 51 1009.7
20260502011238 78 223 3.0 7.0 0.00 0.00 0.00 52 1009.7
20260502011134 78 236 3.0 7.0 0.00 0.00 0.00 52 1009.7
20260502011034 78 228 3.0 7.0 0.00 0.00 0.00 51 1009.7
20260502010934 78 174 3.0 10.0 0.00 0.00 0.00 51 1009.7
20260502010834 78 238 3.0 10.0 0.00 0.00 0.00 51 1009.8
20260502010756 78 239 3.0 10.0 0.00 0.00 0.00 51 1009.8
20260502010732 78 224 3.0 10.0 0.00 0.00 0.00 51 1009.7
20260502010631 78 229 4.0 10.0 0.00 0.00 0.00 51 1009.8
20260502010531 78 228 4.0 10.0 0.00 0.00 0.00 51 1009.8
20260502010428 78 165 4.0 10.0 0.00 0.00 0.00 51 1009.8
20260502010328 78 238 4.0 10.0 0.00 0.00 0.00 51 1009.8
20260502010255 78 231 4.0 10.0 0.00 0.00 0.00 51 1009.8
20260502010227 78 210 4.0 10.0 0.00 0.00 0.00 51 1009.8
20260502010121 78 239 4.0 10.0 0.00 0.00 0.00 51 1009.8
20260502010021 78 214 4.0 10.0 0.00 0.00 0.00 51 1009.8
20260502005920 78 236 4.0 9.0 0.00 0.00 0.00 52 1009.8
20260502005820 78 243 4.0 9.0 0.00 0.00 0.00 51 1009.8
20260502005757 78 266 4.0 9.0 0.00 0.00 0.00 51 1009.8
20260502005720 79 226 4.0 9.0 0.00 0.00 0.00 51 1009.8
20260502005616 79 238 4.0 9.0 0.00 0.00 0.00 51 1009.8
20260502005522 79 232 3.0 7.0 0.00 0.00 0.00 50 1009.7
20260502005515 79 240 3.0 9.0 0.00 0.00 0.00 50 1009.8
20260502005418 79 240 3.0 8.0 0.00 0.00 0.00 50 1009.8
20260502005410 79 233 3.0 7.0 0.00 0.00 0.00 50 1009.7
20260502005214 80 236 2.0 7.0 0.00 0.00 0.00 50 1009.8
20260502005112 80 243 2.0 7.0 0.00 0.00 0.00 50 1009.8
20260502005012 80 240 2.0 5.0 0.00 0.00 0.00 51 1009.8
20260502004910 80 210 1.0 4.0 0.00 0.00 0.00 50 1009.8
20260502004811 80 231 2.0 4.0 0.00 0.00 0.00 50 1009.8
20260502004755 80 231 2.0 4.0 0.00 0.00 0.00 49 1009.8
20260502004708 80 245 2.0 6.0 0.00 0.00 0.00 49 1009.7
20260502004604 80 219 1.0 6.0 0.00 0.00 0.00 49 1009.7
20260502004505 80 195 1.0 6.0 0.00 0.00 0.00 49 1009.8
20260502004405 80 217 2.0 6.0 0.00 0.00 0.00 49 1009.7
20260502004306 80 202 2.0 6.0 0.00 0.00 0.00 49 1009.7
20260502004256 80 221 2.0 6.0 0.00 0.00 0.00 49 1009.7
20260502004202 80 144 2.0 6.0 0.00 0.00 0.00 49 1009.8
20260502004102 80 239 2.0 6.0 0.00 0.00 0.00 49 1009.8
20260502004023 80 246 2.0 6.0 0.00 0.00 0.00 48 1009.8
20260502004000 80 239 2.0 6.0 0.00 0.00 0.00 49 1009.8
20260502003916 80 239 2.0 6.0 0.00 0.00 0.00 48 1009.8
20260502003905 80 246 2.0 6.0 0.00 0.00 0.00 48 1009.8
20260502003738 80 238 2.0 5.0 0.00 0.00 0.00 49 1009.8
20260502003656 80 224 2.0 5.0 0.00 0.00 0.00 49 1009.8
20260502003628 80 224 2.0 5.0 0.00 0.00 0.00 49 1009.8
20260502003450 80 238 2.0 5.0 0.00 0.00 0.00 49 1009.8
20260502003408 80 217 2.0 5.0 0.00 0.00 0.00 48 1009.9
20260502003251 80 238 2.0 5.0 0.00 0.00 0.00 49 1009.8
20260502003150 80 193 3.0 5.0 0.00 0.00 0.00 49 1009.8
20260502003048 80 148 3.0 7.0 0.00 0.00 0.00 49 1009.8
20260502002949 80 231 3.0 7.0 0.00 0.00 0.00 49 1009.8
20260502002847 80 238 3.0 7.0 0.00 0.00 0.00 49 1009.8
20260502002748 80 219 3.0 7.0 0.00 0.00 0.00 50 1009.8
20260502002649 80 242 3.0 7.0 0.00 0.00 0.00 49 1009.8
20260502002546 80 219 3.0 7.0 0.00 0.00 0.00 49 1009.8
20260502002513 80 243 3.0 7.0 0.00 0.00 0.00 50 1009.8
20260502002447 80 224 3.0 7.0 0.00 0.00 0.00 49 1009.8
20260502002403 80 228 3.0 7.0 0.00 0.00 0.00 49 1009.8
20260502002244 80 239 3.0 7.0 0.00 0.00 0.00 50 1009.8
20260502002144 80 229 3.0 7.0 0.00 0.00 0.00 49 1009.9
20260502002045 80 260 3.0 6.0 0.00 0.00 0.00 50 1009.8
20260502001945 80 241 3.0 6.0 0.00 0.00 0.00 50 1009.9
20260502001845 80 154 3.0 6.0 0.00 0.00 0.00 50 1009.9
20260502001753 80 236 3.0 6.0 0.00 0.00 0.00 50 1009.9
20260502001744 80 219 3.0 6.0 0.00 0.00 0.00 50 1009.9
20260502001644 80 210 4.0 7.0 0.00 0.00 0.00 50 1009.9
20260502001545 80 194 4.0 7.0 0.00 0.00 0.00 50 1009.9
20260502001444 80 243 4.0 7.0 0.00 0.00 0.00 49 1009.9
20260502001338 80 189 4.0 7.0 0.00 0.00 0.00 49 1009.9
20260502001253 80 165 4.0 7.0 0.00 0.00 0.00 49 1009.9
20260502001238 80 250 3.0 7.0 0.00 0.00 0.00 49 1009.9
20260502001138 80 133 3.0 7.0 0.00 0.00 0.00 49 1009.9
20260502001036 80 210 3.0 7.0 0.00 0.00 0.00 49 1009.9
20260502000936 80 219 3.0 7.0 0.00 0.00 0.00 49 1009.9
20260502000830 80 181 3.0 7.0 0.00 0.00 0.00 49 1009.9
20260502000753 80 151 3.0 7.0 0.00 0.00 0.00 49 1009.8
20260502000731 80 201 3.0 7.0 0.00 0.00 0.00 49 1009.8
20260502000630 80 215 3.0 7.0 0.00 0.00 0.00 48 1009.8
20260502000530 81 221 2.0 6.0 0.00 0.00 0.00 49 1009.8
20260502000431 81 229 3.0 6.0 0.00 0.00 0.00 49 1009.8
20260502000332 81 207 3.0 7.0 0.00 0.00 0.00 49 1009.8
20260502000247 81 215 3.0 9.0 0.00 0.00 0.00 49 1009.8
20260502000229 81 183 3.0 9.0 0.00 0.00 0.00 49 1009.8
20260502000128 81 276 3.0 9.0 0.00 0.00 0.00 49 1009.9
20260502000026 81 245 3.0 9.0 0.00 0.00 0.00 49 1009.9
20260501235924 81 225 3.0 9.0 0.00 0.00 0.00 49 1009.9
20260501235820 81 236 3.0 9.0 0.00 0.00 0.00 49 1009.9
20260501235740 81 172 3.0 9.0 0.00 0.00 0.00 49 1009.9
20260501235718 81 229 3.0 9.0 0.00 0.00 0.00 49 1009.9
20260501235619 81 218 4.0 9.0 0.00 0.00 0.00 49 1009.9
20260501235518 81 216 4.0 9.0 0.00 0.00 0.00 49 1009.9
20260501235418 81 221 4.0 9.0 0.00 0.00 0.00 49 1009.9
20260501235313 81 235 3.0 8.0 0.00 0.00 0.00 50 1010.0
20260501235233 81 229 3.0 8.0 0.00 0.00 0.00 50 1009.9
20260501235216 82 217 3.0 9.0 0.00 0.00 0.00 49 1010.0
20260501235212 81 240 3.0 8.0 0.00 0.00 0.00 49 1009.9
20260501235113 82 226 3.0 8.0 0.00 0.00 0.00 48 1010.0
20260501235056 82 253 3.0 8.0 0.00 0.00 0.00 49 1010.0
20260501234916 82 250 3.0 7.0 0.00 0.00 0.00 49 1009.9
20260501234839 82 165 3.0 7.0 0.00 0.00 0.00 49 1010.0
20260501234706 82 136 3.0 9.0 0.00 0.00 0.00 49 1010.0
20260501234607 82 231 3.0 9.0 0.00 0.00 0.00 49 1010.0
20260501234506 82 236 3.0 9.0 0.00 0.00 0.00 50 1010.0
20260501234449 83 231 2.0 9.0 0.00 0.00 0.00 48 1010.1
20260501234405 83 259 3.0 9.0 0.00 0.00 0.00 49 1010.0
20260501234335 83 242 3.0 9.0 0.00 0.00 0.00 48 1010.0
20260501234204 83 218 2.0 9.0 0.00 0.00 0.00 48 1010.1
20260501234104 83 242 2.0 9.0 0.00 0.00 0.00 48 1010.1
20260501234002 83 243 2.0 9.0 0.00 0.00 0.00 47 1010.1
20260501233900 84 217 2.0 9.0 0.00 0.00 0.00 47 1010.1
20260501233756 84 207 2.0 9.0 0.00 0.00 0.00 46 1010.1
20260501233716 84 197 1.0 5.0 0.00 0.00 0.00 46 1010.1
20260501233654 84 232 1.0 5.0 0.00 0.00 0.00 46 1010.1
20260501233554 84 217 1.0 5.0 0.00 0.00 0.00 46 1010.2
20260501233455 84 232 1.0 5.0 0.00 0.00 0.00 46 1010.1
20260501233354 84 231 1.0 5.0 0.00 0.00 0.00 46 1010.1
20260501233254 84 266 1.0 5.0 0.00 0.00 0.00 45 1010.1
20260501233210 84 266 1.0 5.0 0.00 0.00 0.00 45 1010.2
20260501233153 85 266 1.0 5.0 0.00 0.00 0.00 45 1010.2
20260501233052 85 266 1.0 5.0 0.00 0.00 0.00 46 1010.2
20260501232950 85 266 1.0 5.0 0.00 0.00 0.00 45 1010.2
20260501232848 85 267 1.0 5.0 0.00 0.00 0.00 45 1010.2
20260501232746 85 226 1.0 4.0 0.00 0.00 0.00 45 1010.2
20260501232704 85 219 0.0 3.0 0.00 0.00 0.00 46 1010.2
20260501232647 85 219 0.0 3.0 0.00 0.00 0.00 45 1010.2
20260501232546 85 220 1.0 3.0 0.00 0.00 0.00 45 1010.2
20260501232444 85 219 1.0 3.0 0.00 0.00 0.00 46 1010.2
20260501232343 85 219 1.0 3.0 0.00 0.00 0.00 46 1010.2
20260501232236 84 219 1.0 3.0 0.00 0.00 0.00 45 1010.2
20260501232159 84 219 1.0 4.0 0.00 0.00 0.00 45 1010.2
20260501232136 84 228 1.0 4.0 0.00 0.00 0.00 45 1010.2
20260501232037 84 228 1.0 4.0 0.00 0.00 0.00 45 1010.2
20260501231937 84 144 1.0 4.0 0.00 0.00 0.00 44 1010.2
20260501231836 84 143 1.0 4.0 0.00 0.00 0.00 45 1010.2
20260501231734 84 143 1.0 4.0 0.00 0.00 0.00 45 1010.3
20260501231653 84 204 1.0 4.0 0.00 0.00 0.00 45 1010.3
20260501231634 84 205 1.0 4.0 0.00 0.00 0.00 47 1010.3
20260501231534 84 231 1.0 4.0 0.00 0.00 0.00 47 1010.3
20260501231433 84 231 1.0 4.0 0.00 0.00 0.00 47 1010.3
20260501231330 84 229 1.0 6.0 0.00 0.00 0.00 47 1010.3
20260501231227 84 224 1.0 6.0 0.00 0.00 0.00 47 1010.3
20260501231146 84 221 1.0 6.0 0.00 0.00 0.00 48 1010.3
20260501231124 84 219 1.0 6.0 0.00 0.00 0.00 48 1010.3
20260501231024 84 212 1.0 6.0 0.00 0.00 0.00 46 1010.3
20260501230925 84 278 1.0 6.0 0.00 0.00 0.00 48 1010.3
20260501230825 84 203 1.0 6.0 0.00 0.00 0.00 47 1010.4
20260501230719 84 124 1.0 6.0 0.00 0.00 0.00 47 1010.3
20260501230639 83 221 1.0 6.0 0.00 0.00 0.00 48 1010.4
20260501230619 83 131 1.0 6.0 0.00 0.00 0.00 49 1010.4
20260501230518 83 163 1.0 6.0 0.00 0.00 0.00 48 1010.4
20260501230418 83 219 0.0 6.0 0.00 0.00 0.00 48 1010.4
20260501230318 83 185 0.0 4.0 0.00 0.00 0.00 48 1010.4
20260501230214 83 222 0.0 4.0 0.00 0.00 0.00 47 1010.4
20260501230135 83 259 1.0 6.0 0.00 0.00 0.00 49 1010.4
20260501230112 83 259 1.0 7.0 0.00 0.00 0.00 49 1010.4
20260501230013 83 259 1.0 7.0 0.00 0.00 0.00 49 1010.5
20260501225912 83 259 1.0 7.0 0.00 0.00 0.00 49 1010.5
20260501225813 83 259 1.0 7.0 0.00 0.00 0.00 49 1010.5
20260501225713 83 259 1.0 7.0 0.00 0.00 0.00 49 1010.5
20260501225610 83 259 1.0 7.0 0.00 0.00 0.00 49 1010.6
20260501225513 83 259 2.0 7.0 0.00 0.00 0.00 48 1010.6
20260501225409 83 259 2.0 7.0 0.00 0.00 0.00 49 1010.6
20260501225306 83 259 2.0 7.0 0.00 0.00 0.00 48 1010.6
20260501225204 83 193 2.0 7.0 0.00 0.00 0.00 48 1010.6
20260501225122 83 176 2.0 7.0 0.00 0.00 0.00 49 1010.6
20260501225104 83 231 2.0 6.0 0.00 0.00 0.00 49 1010.6
20260501225004 83 143 2.0 6.0 0.00 0.00 0.00 49 1010.6
20260501224902 83 141 2.0 6.0 0.00 0.00 0.00 49 1010.7
20260501224800 83 163 2.0 6.0 0.00 0.00 0.00 50 1010.7
20260501224657 83 224 2.0 6.0 0.00 0.00 0.00 50 1010.7
20260501224617 83 224 2.0 6.0 0.00 0.00 0.00 49 1010.7
20260501224555 83 224 2.0 6.0 0.00 0.00 0.00 49 1010.7
20260501224454 83 163 2.0 6.0 0.00 0.00 0.00 50 1010.7
20260501224354 83 233 2.0 6.0 0.00 0.00 0.00 50 1010.8
20260501224255 82 155 2.0 6.0 0.00 0.00 0.00 50 1010.7
20260501224149 82 203 2.0 6.0 0.00 0.00 0.00 49 1010.8
20260501224110 83 200 2.0 6.0 0.00 0.00 0.00 49 1010.8
20260501224048 83 235 2.0 7.0 0.00 0.00 0.00 49 1010.8
20260501223949 83 323 2.0 7.0 0.00 0.00 0.00 50 1010.8
20260501223848 83 323 2.0 7.0 0.00 0.00 0.00 50 1010.9
20260501223748 83 323 3.0 7.0 0.00 0.00 0.00 50 1010.9
20260501223646 83 233 3.0 7.0 0.00 0.00 0.00 50 1010.9
20260501223604 83 233 3.0 7.0 0.00 0.00 0.00 50 1010.9
20260501223546 83 233 3.0 7.0 0.00 0.00 0.00 50 1011.0
20260501223447 83 233 3.0 7.0 0.00 0.00 0.00 50 1011.0
20260501223344 83 240 3.0 7.0 0.00 0.00 0.00 51 1011.0
20260501223242 83 184 3.0 7.0 0.00 0.00 0.00 51 1011.0
20260501223137 83 229 2.0 8.0 0.00 0.00 0.00 50 1011.0
20260501223057 83 193 2.0 8.0 0.00 0.00 0.00 50 1011.0
20260501223036 82 222 2.0 8.0 0.00 0.00 0.00 50 1011.0
20260501222937 82 245 2.0 8.0 0.00 0.00 0.00 50 1011.1
20260501222836 82 135 2.0 8.0 0.00 0.00 0.00 50 1011.1
20260501222736 82 276 2.0 8.0 0.00 0.00 0.00 50 1011.1
20260501222632 82 235 2.0 8.0 0.00 0.00 0.00 50 1011.1
20260501222555 83 233 2.0 8.0 0.00 0.00 0.00 50 1011.1
20260501222530 83 210 2.0 8.0 0.00 0.00 0.00 50 1011.2
20260501222430 83 245 2.0 8.0 0.00 0.00 0.00 50 1011.2
20260501222330 83 260 2.0 8.0 0.00 0.00 0.00 50 1011.2
20260501222230 83 250 2.0 8.0 0.00 0.00 0.00 51 1011.2
20260501222126 83 219 2.0 7.0 0.00 0.00 0.00 51 1011.3
20260501222047 83 220 3.0 7.0 0.00 0.00 0.00 50 1011.3
20260501222024 83 219 3.0 7.0 0.00 0.00 0.00 50 1011.3
20260501221925 82 221 3.0 8.0 0.00 0.00 0.00 51 1011.3
20260501221824 82 276 3.0 8.0 0.00 0.00 0.00 51 1011.2
20260501221803 82 205 3.0 8.0 0.00 0.00 0.00 51 1011.3
20260501221727 82 255 3.0 8.0 0.00 0.00 0.00 51 1011.3
20260501221651 82 224 3.0 8.0 0.00 0.00 0.00 50 1011.3
20260501221520 82 225 3.0 8.0 0.00 0.00 0.00 51 1011.3
20260501221421 82 224 3.0 8.0 0.00 0.00 0.00 50 1011.3
20260501221320 82 212 3.0 8.0 0.00 0.00 0.00 51 1011.3
20260501221218 82 224 3.0 8.0 0.00 0.00 0.00 50 1011.3
20260501221114 82 231 3.0 8.0 0.00 0.00 0.00 50 1011.3
20260501221034 82 228 3.0 8.0 0.00 0.00 0.00 50 1011.4
20260501221012 82 232 3.0 8.0 0.00 0.00 0.00 50 1011.4
20260501220913 82 149 3.0 8.0 0.00 0.00 0.00 50 1011.4
20260501220813 82 233 3.0 8.0 0.00 0.00 0.00 50 1011.3
20260501220712 82 239 3.0 8.0 0.00 0.00 0.00 50 1011.4
20260501220607 82 256 3.0 9.0 0.00 0.00 0.00 51 1011.5
20260501220527 82 243 3.0 9.0 0.00 0.00 0.00 51 1011.4
20260501220506 82 235 3.0 9.0 0.00 0.00 0.00 51 1011.4
20260501220406 82 141 3.0 9.0 0.00 0.00 0.00 51 1011.4
20260501220307 81 235 3.0 9.0 0.00 0.00 0.00 51 1011.5
20260501220206 81 232 3.0 9.0 0.00 0.00 0.00 51 1011.5
20260501220024 81 217 3.0 9.0 0.00 0.00 0.00 50 1011.6
20260501220000 81 221 3.0 9.0 0.00 0.00 0.00 50 1011.6
20260501215904 82 204 3.0 9.0 0.00 0.00 0.00 50 1011.5
20260501215800 82 225 3.0 9.0 0.00 0.00 0.00 50 1011.6
20260501215700 82 241 3.0 9.0 0.00 0.00 0.00 50 1011.6
20260501215554 82 212 3.0 9.0 0.00 0.00 0.00 50 1011.6
20260501215515 82 224 3.0 9.0 0.00 0.00 0.00 51 1011.6
20260501215455 82 242 3.0 9.0 0.00 0.00 0.00 51 1011.6
20260501215354 82 174 3.0 9.0 0.00 0.00 0.00 51 1011.6
20260501215254 82 199 3.0 9.0 0.00 0.00 0.00 51 1011.6
20260501215154 81 242 3.0 9.0 0.00 0.00 0.00 51 1011.6
20260501215050 81 287 3.0 9.0 0.00 0.00 0.00 50 1011.6
20260501215010 81 222 3.0 9.0 0.00 0.00 0.00 49 1011.6
20260501214950 81 144 3.0 9.0 0.00 0.00 0.00 49 1011.6
20260501214850 81 226 3.0 9.0 0.00 0.00 0.00 49 1011.6
20260501214750 82 214 3.0 9.0 0.00 0.00 0.00 49 1011.6
20260501214648 82 208 3.0 9.0 0.00 0.00 0.00 49 1011.6
20260501214542 82 238 2.0 6.0 0.00 0.00 0.00 51 1011.6
20260501214505 82 242 2.0 6.0 0.00 0.00 0.00 50 1011.6
20260501214443 82 242 2.0 6.0 0.00 0.00 0.00 50 1011.6
20260501214342 82 218 1.0 6.0 0.00 0.00 0.00 50 1011.7
20260501214242 82 224 1.0 6.0 0.00 0.00 0.00 50 1011.7
20260501214143 82 221 1.0 6.0 0.00 0.00 0.00 52 1011.7
20260501214039 82 218 1.0 6.0 0.00 0.00 0.00 51 1011.6
20260501213958 82 207 1.0 6.0 0.00 0.00 0.00 50 1011.6
20260501213936 82 245 1.0 6.0 0.00 0.00 0.00 50 1011.6
20260501213836 82 233 1.0 6.0 0.00 0.00 0.00 50 1011.7
20260501213736 82 228 1.0 5.0 0.00 0.00 0.00 51 1011.7
20260501213636 82 300 2.0 5.0 0.00 0.00 0.00 51 1011.7
20260501213533 82 300 2.0 6.0 0.00 0.00 0.00 51 1011.7
20260501213431 82 30 2.0 9.0 0.00 0.00 0.00 50 1011.7
20260501213330 82 332 2.0 9.0 0.00 0.00 0.00 50 1011.7
20260501213230 82 215 2.0 9.0 0.00 0.00 0.00 52 1011.7
20260501213130 82 219 2.0 9.0 0.00 0.00 0.00 50 1011.8
20260501213024 81 239 2.0 9.0 0.00 0.00 0.00 50 1011.8
20260501212924 81 246 3.0 9.0 0.00 0.00 0.00 49 1011.8
20260501212825 82 204 3.0 9.0 0.00 0.00 0.00 50 1011.8
20260501212727 82 240 3.0 9.0 0.00 0.00 0.00 49 1011.8
20260501212702 82 231 2.0 7.0 0.00 0.00 0.00 49 1011.8
20260501212624 82 144 3.0 9.0 0.00 0.00 0.00 49 1011.8
20260501212552 82 219 2.0 9.0 0.00 0.00 0.00 49 1011.8
20260501212423 82 231 2.0 7.0 0.00 0.00 0.00 49 1011.8
20260501212322 82 259 2.0 7.0 0.00 0.00 0.00 49 1011.8
20260501212220 82 200 3.0 8.0 0.00 0.00 0.00 48 1011.8
20260501212120 82 218 2.0 8.0 0.00 0.00 0.00 50 1011.8
20260501212012 82 208 2.0 8.0 0.00 0.00 0.00 49 1011.8
20260501211933 82 193 2.0 8.0 0.00 0.00 0.00 49 1011.8
20260501211912 82 222 2.0 8.0 0.00 0.00 0.00 49 1011.8
20260501211813 82 225 2.0 8.0 0.00 0.00 0.00 49 1011.8
20260501211712 82 229 1.0 8.0 0.00 0.00 0.00 49 1011.8
20260501211613 82 179 1.0 8.0 0.00 0.00 0.00 49 1011.9
20260501211511 82 144 2.0 8.0 0.00 0.00 0.00 49 1011.8
20260501211433 83 143 1.0 8.0 0.00 0.00 0.00 49 1011.9
20260501211410 83 143 1.0 8.0 0.00 0.00 0.00 47 1011.9
20260501211308 83 159 1.0 8.0 0.00 0.00 0.00 47 1011.9
20260501211209 83 235 1.0 3.0 0.00 0.00 0.00 48 1011.9
20260501211106 83 253 1.0 2.0 0.00 0.00 0.00 49 1011.8
20260501211002 83 150 1.0 2.0 0.00 0.00 0.00 49 1011.8
20260501210932 83 103 1.0 2.0 0.00 0.00 0.00 49 1011.8
20260501210904 83 103 1.0 3.0 0.00 0.00 0.00 50 1011.8
20260501210801 83 138 1.0 4.0 0.00 0.00 0.00 49 1011.8
20260501210700 83 138 1.0 4.0 0.00 0.00 0.00 49 1011.9
20260501210600 83 136 1.0 4.0 0.00 0.00 0.00 50 1011.8
20260501210500 83 262 1.0 4.0 0.00 0.00 0.00 50 1011.9
20260501210430 83 262 1.0 4.0 0.00 0.00 0.00 50 1011.9
20260501210358 83 262 1.0 4.0 0.00 0.00 0.00 50 1011.9
20260501210258 82 261 1.0 4.0 0.00 0.00 0.00 51 1011.8
20260501210156 82 262 1.0 4.0 0.00 0.00 0.00 51 1011.8
20260501210056 82 262 1.0 4.0 0.00 0.00 0.00 52 1011.9
20260501205930 82 262 1.0 4.0 0.00 0.00 0.00 52 1011.9
20260501205849 81 136 1.0 4.0 0.00 0.00 0.00 51 1011.9
20260501205748 81 190 1.0 4.0 0.00 0.00 0.00 52 1011.9
20260501205648 81 338 1.0 4.0 0.00 0.00 0.00 52 1011.9
20260501205549 81 336 1.0 7.0 0.00 0.00 0.00 51 1011.9
20260501205445 81 300 1.0 7.0 0.00 0.00 0.00 52 1012.0
20260501205430 81 301 1.0 7.0 0.00 0.00 0.00 52 1012.0
20260501205343 81 300 1.0 7.0 0.00 0.00 0.00 52 1012.0
20260501205242 81 219 1.0 7.0 0.00 0.00 0.00 53 1012.0
20260501205142 80 139 1.0 7.0 0.00 0.00 0.00 51 1012.0
20260501205042 80 205 2.0 7.0 0.00 0.00 0.00 51 1012.0
20260501204930 80 224 2.0 7.0 0.00 0.00 0.00 53 1012.0
20260501204837 80 177 2.0 7.0 0.00 0.00 0.00 54 1012.0
20260501204736 80 253 2.0 7.0 0.00 0.00 0.00 54 1012.1
20260501204637 80 253 3.0 7.0 0.00 0.00 0.00 53 1012.1
20260501204536 79 248 3.0 7.0 0.00 0.00 0.00 54 1012.1
20260501204432 79 199 3.0 7.0 0.00 0.00 0.00 54 1012.1
20260501204331 79 231 3.0 7.0 0.00 0.00 0.00 53 1012.1
20260501204230 79 221 3.0 7.0 0.00 0.00 0.00 53 1012.2
20260501204151 79 239 2.0 7.0 0.00 0.00 0.00 53 1012.1
20260501204131 79 232 3.0 7.0 0.00 0.00 0.00 52 1012.1
20260501204047 79 229 3.0 7.0 0.00 0.00 0.00 52 1012.1
20260501204037 79 239 2.0 7.0 0.00 0.00 0.00 53 1012.1
20260501203828 79 253 2.0 7.0 0.00 0.00 0.00 54 1012.1
20260501203728 79 228 2.0 7.0 0.00 0.00 0.00 53 1012.2
20260501203628 79 207 2.0 7.0 0.00 0.00 0.00 53 1012.2
20260501203528 79 232 3.0 7.0 0.00 0.00 0.00 54 1012.2
20260501203431 78 219 3.0 9.0 0.00 0.00 0.00 56 1012.2
20260501203329 78 264 3.0 10.0 0.00 0.00 0.00 55 1012.2
20260501203228 78 141 4.0 10.0 0.00 0.00 0.00 55 1012.2
20260501203157 78 179 4.0 10.0 0.00 0.00 0.00 55 1012.3
20260501203129 78 250 4.0 10.0 0.00 0.00 0.00 55 1012.3
20260501203046 78 224 4.0 10.0 0.00 0.00 0.00 54 1012.3
20260501203036 78 179 4.0 10.0 0.00 0.00 0.00 55 1012.3
20260501202829 78 200 5.0 10.0 0.00 0.00 0.00 56 1012.4
20260501202729 78 225 5.0 10.0 0.00 0.00 0.00 54 1012.4
20260501202649 78 229 4.0 11.0 0.00 0.00 0.00 54 1012.4
20260501202628 78 178 5.0 11.0 0.00 0.00 0.00 54 1012.4
20260501202547 78 215 4.0 11.0 0.00 0.00 0.00 53 1012.4
20260501202536 78 229 4.0 11.0 0.00 0.00 0.00 54 1012.4
20260501202328 78 233 4.0 11.0 0.00 0.00 0.00 55 1012.4
20260501202227 78 222 4.0 11.0 0.00 0.00 0.00 53 1012.4
20260501202154 80 231 2.0 11.0 0.00 0.00 0.00 53 1012.4
20260501202126 79 236 3.0 11.0 0.00 0.00 0.00 52 1012.5
20260501202042 79 221 3.0 11.0 0.00 0.00 0.00 52 1012.4
20260501201925 80 214 2.0 11.0 0.00 0.00 0.00 53 1012.4
20260501201824 79 107 2.0 11.0 0.00 0.00 0.00 53 1012.4
20260501201723 79 134 2.0 11.0 0.00 0.00 0.00 53 1012.5
20260501201622 79 149 2.0 8.0 0.00 0.00 0.00 56 1012.5
20260501201522 79 255 3.0 9.0 0.00 0.00 0.00 56 1012.5
20260501201428 78 254 2.0 9.0 0.00 0.00 0.00 54 1012.5
20260501201420 78 169 2.0 9.0 0.00 0.00 0.00 54 1012.5
20260501201320 78 203 2.0 9.0 0.00 0.00 0.00 55 1012.5
20260501201218 78 170 2.0 9.0 0.00 0.00 0.00 55 1012.5
20260501201141 77 236 3.0 9.0 0.00 0.00 0.00 56 1012.5
20260501201118 77 219 2.0 9.0 0.00 0.00 0.00 56 1012.5
20260501201035 77 236 3.0 9.0 0.00 0.00 0.00 56 1012.5
20260501200916 77 236 3.0 9.0 0.00 0.00 0.00 56 1012.5
20260501200816 77 238 3.0 9.0 0.00 0.00 0.00 55 1012.5
20260501200714 77 236 3.0 9.0 0.00 0.00 0.00 55 1012.5
20260501200612 77 246 3.0 9.0 0.00 0.00 0.00 55 1012.6
20260501200513 77 231 2.0 8.0 0.00 0.00 0.00 55 1012.6
20260501200424 77 136 2.0 8.0 0.00 0.00 0.00 56 1012.6
20260501200412 77 245 2.0 8.0 0.00 0.00 0.00 56 1012.6
20260501200313 77 252 2.0 8.0 0.00 0.00 0.00 56 1012.7
20260501200211 77 239 2.0 8.0 0.00 0.00 0.00 55 1012.6
20260501200109 77 233 2.0 8.0 0.00 0.00 0.00 54 1012.7
20260501200009 78 264 2.0 8.0 0.00 0.00 0.00 54 1012.7
20260501195925 78 231 2.0 8.0 0.00 0.00 0.00 54 1012.7
20260501195909 78 232 2.0 8.0 0.00 0.00 0.00 53 1012.7
20260501195809 78 238 2.0 8.0 0.00 0.00 0.00 53 1012.7
20260501195709 78 203 2.0 7.0 0.00 0.00 0.00 55 1012.7
20260501195608 78 321 2.0 7.0 0.00 0.00 0.00 56 1012.7
20260501195502 77 167 3.0 7.0 0.00 0.00 0.00 57 1012.7
20260501195424 77 216 3.0 7.0 0.00 0.00 0.00 57 1012.7
20260501195404 77 300 3.0 7.0 0.00 0.00 0.00 56 1012.7
20260501195305 77 259 3.0 7.0 0.00 0.00 0.00 57 1012.7
20260501195200 77 262 3.0 7.0 0.00 0.00 0.00 57 1012.7
20260501195141 76 194 4.0 7.0 0.00 0.00 0.00 56 1012.8
20260501195101 76 276 4.0 7.0 0.00 0.00 0.00 57 1012.8
20260501195033 76 219 4.0 7.0 0.00 0.00 0.00 56 1012.7
20260501194859 76 160 4.0 7.0 0.00 0.00 0.00 57 1012.8
20260501194755 76 176 4.0 9.0 0.00 0.00 0.00 57 1012.8
20260501194654 76 169 4.0 9.0 0.00 0.00 0.00 57 1012.8
20260501194554 76 211 4.0 10.0 0.00 0.00 0.00 57 1012.8
20260501194450 75 146 4.0 10.0 0.00 0.00 0.00 58 1012.8
20260501194421 75 222 4.0 10.0 0.00 0.00 0.00 58 1012.8
20260501194350 75 233 4.0 10.0 0.00 0.00 0.00 58 1012.8
20260501194250 75 232 4.0 10.0 0.00 0.00 0.00 59 1012.8
20260501194150 75 219 4.0 10.0 0.00 0.00 0.00 58 1012.9
20260501194052 75 239 4.0 10.0 0.00 0.00 0.00 58 1012.9
20260501193950 75 239 4.0 10.0 0.00 0.00 0.00 58 1012.9
20260501193917 75 235 4.0 10.0 0.00 0.00 0.00 58 1012.9
20260501193848 75 236 4.0 10.0 0.00 0.00 0.00 58 1012.9
20260501193748 75 271 4.0 10.0 0.00 0.00 0.00 58 1012.9
20260501193649 75 243 4.0 10.0 0.00 0.00 0.00 58 1012.9
20260501193548 75 245 3.0 8.0 0.00 0.00 0.00 58 1012.9
20260501193448 75 231 3.0 11.0 0.00 0.00 0.00 58 1013.0
20260501193420 75 236 3.0 11.0 0.00 0.00 0.00 59 1013.0
20260501193348 75 236 3.0 11.0 0.00 0.00 0.00 59 1013.0
20260501193248 75 245 4.0 11.0 0.00 0.00 0.00 57 1012.9
20260501193149 75 232 3.0 11.0 0.00 0.00 0.00 58 1013.0
20260501193049 75 276 3.0 11.0 0.00 0.00 0.00 57 1013.0
20260501192948 76 200 3.0 11.0 0.00 0.00 0.00 57 1013.0
20260501192919 76 228 3.0 11.0 0.00 0.00 0.00 58 1013.0
20260501192848 76 243 3.0 11.0 0.00 0.00 0.00 58 1013.1
20260501192743 76 197 3.0 11.0 0.00 0.00 0.00 57 1013.1
20260501192642 76 238 3.0 11.0 0.00 0.00 0.00 56 1013.1
20260501192543 76 267 3.0 11.0 0.00 0.00 0.00 58 1013.0
20260501192441 76 214 3.0 9.0 0.00 0.00 0.00 57 1013.1
20260501192419 76 215 3.0 9.0 0.00 0.00 0.00 56 1013.1
20260501192340 76 214 3.0 9.0 0.00 0.00 0.00 56 1013.1
20260501192240 76 225 3.0 8.0 0.00 0.00 0.00 57 1013.1
20260501192143 77 255 2.0 8.0 0.00 0.00 0.00 55 1013.2
20260501192138 76 215 3.0 8.0 0.00 0.00 0.00 56 1013.1
20260501192039 76 210 3.0 8.0 0.00 0.00 0.00 56 1013.2
20260501192028 77 255 2.0 8.0 0.00 0.00 0.00 55 1013.2
20260501191835 77 207 2.0 6.0 0.00 0.00 0.00 55 1013.2
20260501191731 77 131 2.0 6.0 0.00 0.00 0.00 57 1013.2
20260501191650 76 215 1.0 6.0 0.00 0.00 0.00 58 1013.3
20260501191628 76 141 2.0 6.0 0.00 0.00 0.00 56 1013.2
20260501191537 76 263 2.0 6.0 0.00 0.00 0.00 58 1013.3
20260501191528 76 219 1.0 6.0 0.00 0.00 0.00 58 1013.3
20260501191326 76 222 1.0 6.0 0.00 0.00 0.00 58 1013.3
20260501191220 76 98 1.0 6.0 0.00 0.00 0.00 58 1013.3
20260501191120 75 217 2.0 6.0 0.00 0.00 0.00 59 1013.3
20260501191020 75 162 2.0 6.0 0.00 0.00 0.00 60 1013.3
20260501190921 75 161 2.0 7.0 0.00 0.00 0.00 60 1013.3
20260501190819 74 187 2.0 8.0 0.00 0.00 0.00 59 1013.3
20260501190713 74 232 3.0 9.0 0.00 0.00 0.00 60 1013.3
20260501190613 74 226 3.0 9.0 0.00 0.00 0.00 61 1013.4
20260501190512 74 246 3.0 9.0 0.00 0.00 0.00 61 1013.4
20260501190430 74 177 4.0 9.0 0.00 0.00 0.00 61 1013.3
20260501190410 74 193 4.0 9.0 0.00 0.00 0.00 61 1013.3
20260501190311 73 225 4.0 9.0 0.00 0.00 0.00 61 1013.3
20260501190205 73 250 4.0 9.0 0.00 0.00 0.00 62 1013.4
20260501190105 73 150 4.0 9.0 0.00 0.00 0.00 61 1013.4
20260501190004 73 239 4.0 9.0 0.00 0.00 0.00 61 1013.4
20260501185927 73 235 3.0 9.0 0.00 0.00 0.00 61 1013.4
20260501185904 73 260 3.0 9.0 0.00 0.00 0.00 61 1013.4
20260501185804 73 262 3.0 9.0 0.00 0.00 0.00 60 1013.4
20260501185700 73 241 3.0 8.0 0.00 0.00 0.00 61 1013.4
20260501185559 73 253 3.0 8.0 0.00 0.00 0.00 61 1013.4
20260501185459 73 266 3.0 8.0 0.00 0.00 0.00 61 1013.4
20260501185427 73 229 3.0 7.0 0.00 0.00 0.00 60 1013.4
20260501185358 73 218 3.0 7.0 0.00 0.00 0.00 60 1013.4
20260501185258 73 150 3.0 7.0 0.00 0.00 0.00 60 1013.4
20260501185159 73 232 3.0 10.0 0.00 0.00 0.00 60 1013.5
20260501185058 73 239 3.0 10.0 0.00 0.00 0.00 60 1013.4
20260501184958 73 236 3.0 10.0 0.00 0.00 0.00 61 1013.5
20260501184914 73 191 4.0 10.0 0.00 0.00 0.00 61 1013.5
20260501184858 73 200 4.0 10.0 0.00 0.00 0.00 61 1013.5
20260501184758 73 174 4.0 10.0 0.00 0.00 0.00 62 1013.5
20260501184659 72 200 4.0 10.0 0.00 0.00 0.00 62 1013.5
20260501184558 72 210 4.0 10.0 0.00 0.00 0.00 62 1013.5
20260501184459 72 167 4.0 10.0 0.00 0.00 0.00 62 1013.5
20260501184413 72 255 4.0 10.0 0.00 0.00 0.00 62 1013.5
20260501184359 72 186 4.0 10.0 0.00 0.00 0.00 62 1013.5
20260501184259 72 243 4.0 10.0 0.00 0.00 0.00 62 1013.5
20260501184158 72 229 3.0 9.0 0.00 0.00 0.00 62 1013.5
20260501184059 72 233 3.0 8.0 0.00 0.00 0.00 62 1013.5
20260501183952 72 179 3.0 8.0 0.00 0.00 0.00 62 1013.5
20260501183914 72 255 3.0 8.0 0.00 0.00 0.00 62 1013.6
20260501183856 72 224 3.0 8.0 0.00 0.00 0.00 61 1013.6
20260501183752 72 236 3.0 8.0 0.00 0.00 0.00 61 1013.6
20260501183652 73 235 2.0 8.0 0.00 0.00 0.00 61 1013.6
20260501183552 73 212 2.0 7.0 0.00 0.00 0.00 61 1013.6
20260501183450 73 218 3.0 9.0 0.00 0.00 0.00 61 1013.6
20260501183409 73 236 3.0 9.0 0.00 0.00 0.00 61 1013.6
20260501183350 73 222 3.0 10.0 0.00 0.00 0.00 64 1013.6
20260501183251 72 262 3.0 10.0 0.00 0.00 0.00 64 1013.6
20260501183148 72 262 3.0 10.0 0.00 0.00 0.00 64 1013.6
20260501183046 72 262 4.0 10.0 0.00 0.00 0.00 64 1013.6
20260501182941 71 230 4.0 10.0 0.00 0.00 0.00 64 1013.6
20260501182906 71 238 4.0 10.0 0.00 0.00 0.00 63 1013.6
20260501182841 71 208 4.0 10.0 0.00 0.00 0.00 63 1013.7
20260501182740 71 169 4.0 10.0 0.00 0.00 0.00 63 1013.7
20260501182640 71 257 4.0 10.0 0.00 0.00 0.00 63 1013.7
20260501182540 71 214 3.0 10.0 0.00 0.00 0.00 63 1013.7
20260501182434 71 210 3.0 10.0 0.00 0.00 0.00 62 1013.7
20260501182356 71 250 3.0 9.0 0.00 0.00 0.00 64 1013.7
20260501182334 71 152 3.0 9.0 0.00 0.00 0.00 63 1013.7
20260501182234 71 229 3.0 9.0 0.00 0.00 0.00 63 1013.7
20260501182135 71 207 3.0 9.0 0.00 0.00 0.00 63 1013.7
20260501182035 72 143 3.0 9.0 0.00 0.00 0.00 62 1013.7
20260501181930 72 229 3.0 9.0 0.00 0.00 0.00 62 1013.7
20260501181853 72 229 3.0 8.0 0.00 0.00 0.00 63 1013.7
20260501181828 72 249 3.0 8.0 0.00 0.00 0.00 63 1013.7
20260501181729 72 249 3.0 8.0 0.00 0.00 0.00 64 1013.7
20260501181629 72 245 3.0 8.0 0.00 0.00 0.00 64 1013.7
20260501181528 71 249 3.0 8.0 0.00 0.00 0.00 64 1013.8
20260501181424 71 201 2.0 8.0 0.00 0.00 0.00 64 1013.7
20260501181344 71 228 3.0 8.0 0.00 0.00 0.00 64 1013.7
20260501181325 71 246 3.0 8.0 0.00 0.00 0.00 64 1013.7
20260501181227 71 239 3.0 8.0 0.00 0.00 0.00 64 1013.7
20260501181125 71 288 3.0 8.0 0.00 0.00 0.00 63 1013.8
20260501181022 71 194 3.0 8.0 0.00 0.00 0.00 63 1013.8
20260501180920 71 236 3.0 8.0 0.00 0.00 0.00 64 1013.8
20260501180839 71 146 2.0 8.0 0.00 0.00 0.00 64 1013.8
20260501180820 71 211 2.0 8.0 0.00 0.00 0.00 64 1013.8
20260501180722 71 238 3.0 8.0 0.00 0.00 0.00 66 1013.7
20260501180619 71 232 3.0 8.0 0.00 0.00 0.00 66 1013.8
20260501180558 71 243 3.0 8.0 0.00 0.00 0.00 63 1013.8
20260501180517 71 131 3.0 8.0 0.00 0.00 0.00 65 1013.8
20260501180443 71 243 3.0 8.0 0.00 0.00 0.00 64 1013.8
20260501180312 71 240 3.0 8.0 0.00 0.00 0.00 63 1013.8
20260501180211 71 225 3.0 8.0 0.00 0.00 0.00 63 1013.8
20260501180111 71 195 2.0 8.0 0.00 0.00 0.00 64 1013.8
20260501180010 71 141 2.0 6.0 0.00 0.00 0.00 64 1013.8
20260501175907 71 168 2.0 6.0 0.00 0.00 0.00 64 1013.8
20260501175829 71 181 2.0 6.0 0.00 0.00 0.00 64 1013.8
20260501175806 71 224 2.0 6.0 0.00 0.00 0.00 64 1013.8
20260501175706 71 235 2.0 6.0 0.00 0.00 0.00 64 1013.8
20260501175606 71 200 2.0 6.0 0.00 0.00 0.00 65 1013.8
20260501175553 71 232 2.0 7.0 0.00 0.00 0.00 65 1013.8
20260501175504 71 193 2.0 7.0 0.00 0.00 0.00 65 1013.8
20260501175430 71 217 2.0 7.0 0.00 0.00 0.00 65 1013.8
20260501175306 71 236 2.0 7.0 0.00 0.00 0.00 65 1013.8
20260501175202 71 235 2.0 7.0 0.00 0.00 0.00 66 1013.8
20260501175100 70 225 2.0 7.0 0.00 0.00 0.00 66 1013.8
20260501174958 70 131 2.0 7.0 0.00 0.00 0.00 65 1013.8
20260501174852 70 129 2.0 7.0 0.00 0.00 0.00 65 1013.8
20260501174815 70 204 2.0 7.0 0.00 0.00 0.00 65 1013.8
20260501174752 71 223 2.0 7.0 0.00 0.00 0.00 65 1013.8
20260501174652 71 233 2.0 7.0 0.00 0.00 0.00 65 1013.8
20260501174552 71 207 1.0 5.0 0.00 0.00 0.00 65 1013.8
20260501174452 71 174 2.0 6.0 0.00 0.00 0.00 65 1013.8
20260501174346 70 126 1.0 6.0 0.00 0.00 0.00 67 1013.8
20260501174309 70 143 2.0 6.0 0.00 0.00 0.00 67 1013.8
20260501174247 70 132 2.0 6.0 0.00 0.00 0.00 67 1013.7
20260501174146 70 133 2.0 6.0 0.00 0.00 0.00 68 1013.8
20260501174046 69 133 2.0 6.0 0.00 0.00 0.00 68 1013.8
20260501174025 69 224 2.0 6.0 0.00 0.00 0.00 68 1013.8
20260501173946 69 132 2.0 6.0 0.00 0.00 0.00 68 1013.7
20260501173913 69 132 2.0 6.0 0.00 0.00 0.00 68 1013.8
20260501173740 69 172 2.0 6.0 0.00 0.00 0.00 68 1013.7
20260501173640 69 232 2.0 6.0 0.00 0.00 0.00 66 1013.7
20260501173540 69 236 2.0 6.0 0.00 0.00 0.00 67 1013.7
20260501173520 69 224 2.0 6.0 0.00 0.00 0.00 68 1013.7
20260501173441 69 215 2.0 6.0 0.00 0.00 0.00 67 1013.7
20260501173408 69 235 2.0 6.0 0.00 0.00 0.00 68 1013.7
20260501173237 69 253 2.0 6.0 0.00 0.00 0.00 68 1013.7
20260501173136 69 194 2.0 6.0 0.00 0.00 0.00 67 1013.7
20260501173036 68 235 2.0 6.0 0.00 0.00 0.00 68 1013.7
20260501172935 68 217 2.0 6.0 0.00 0.00 0.00 68 1013.7
20260501172830 68 217 2.0 6.0 0.00 0.00 0.00 68 1013.7
20260501172751 69 233 2.0 6.0 0.00 0.00 0.00 67 1013.7
20260501172730 69 225 1.0 6.0 0.00 0.00 0.00 67 1013.8
20260501172630 69 221 1.0 6.0 0.00 0.00 0.00 68 1013.7
20260501172531 69 217 1.0 6.0 0.00 0.00 0.00 67 1013.7
20260501172428 69 212 2.0 6.0 0.00 0.00 0.00 67 1013.7
20260501172324 69 212 2.0 6.0 0.00 0.00 0.00 67 1013.7
20260501172244 69 210 2.0 6.0 0.00 0.00 0.00 67 1013.7
20260501172228 69 195 2.0 6.0 0.00 0.00 0.00 67 1013.7
20260501172123 68 163 1.0 6.0 0.00 0.00 0.00 68 1013.7
20260501172023 68 124 1.0 6.0 0.00 0.00 0.00 68 1013.7
20260501171922 68 236 2.0 6.0 0.00 0.00 0.00 69 1013.7
20260501171822 68 236 2.0 6.0 0.00 0.00 0.00 68 1013.7
20260501171720 68 214 2.0 6.0 0.00 0.00 0.00 68 1013.7
20260501171621 68 275 2.0 6.0 0.00 0.00 0.00 68 1013.7
20260501171518 68 235 2.0 6.0 0.00 0.00 0.00 68 1013.7
20260501171416 68 235 3.0 6.0 0.00 0.00 0.00 67 1013.8
20260501171311 68 221 3.0 6.0 0.00 0.00 0.00 69 1013.8
20260501171211 68 158 3.0 6.0 0.00 0.00 0.00 69 1013.7
20260501171110 67 166 3.0 5.0 0.00 0.00 0.00 70 1013.7
20260501171011 67 143 3.0 5.0 0.00 0.00 0.00 69 1013.8
20260501170910 67 131 3.0 5.0 0.00 0.00 0.00 69 1013.7
20260501170808 67 134 3.0 5.0 0.00 0.00 0.00 69 1013.8
20260501170730 67 236 3.0 5.0 0.00 0.00 0.00 69 1013.8
20260501170708 67 211 3.0 5.0 0.00 0.00 0.00 69 1013.8
20260501170608 67 139 3.0 5.0 0.00 0.00 0.00 69 1013.8
20260501170506 67 150 3.0 5.0 0.00 0.00 0.00 69 1013.8
20260501170405 67 134 3.0 5.0 0.00 0.00 0.00 70 1013.8
20260501170259 67 138 2.0 5.0 0.00 0.00 0.00 70 1013.8
20260501170220 67 207 2.0 5.0 0.00 0.00 0.00 70 1013.7
20260501170158 67 131 2.0 5.0 0.00 0.00 0.00 70 1013.7
20260501170058 67 139 2.0 5.0 0.00 0.00 0.00 70 1013.8
20260501165958 67 238 2.0 6.0 0.00 0.00 0.00 71 1013.8
20260501165858 67 159 2.0 6.0 0.00 0.00 0.00 71 1013.7
20260501165755 67 200 2.0 6.0 0.00 0.00 0.00 71 1013.7
20260501165714 67 168 2.0 6.0 0.00 0.00 0.00 71 1013.7
20260501165655 67 197 2.0 6.0 0.00 0.00 0.00 71 1013.7
20260501165554 66 150 2.0 6.0 0.00 0.00 0.00 71 1013.7
20260501165454 66 219 2.0 6.0 0.00 0.00 0.00 71 1013.8
20260501165352 66 226 2.0 6.0 0.00 0.00 0.00 70 1013.7
20260501165246 67 226 2.0 6.0 0.00 0.00 0.00 71 1013.8
20260501165210 66 211 3.0 6.0 0.00 0.00 0.00 71 1013.8
20260501165147 66 143 3.0 6.0 0.00 0.00 0.00 71 1013.8
20260501165046 66 146 3.0 6.0 0.00 0.00 0.00 71 1013.8
20260501164946 66 211 2.0 5.0 0.00 0.00 0.00 72 1013.8
20260501164850 66 156 2.0 5.0 0.00 0.00 0.00 72 1013.9
20260501164740 66 145 2.0 5.0 0.00 0.00 0.00 72 1013.9
20260501164702 65 208 2.0 5.0 0.00 0.00 0.00 73 1013.9
20260501164641 65 217 2.0 5.0 0.00 0.00 0.00 73 1013.9
20260501164541 65 232 2.0 5.0 0.00 0.00 0.00 72 1013.9
20260501164441 65 137 2.0 5.0 0.00 0.00 0.00 72 1013.9
20260501164340 65 231 2.0 5.0 0.00 0.00 0.00 70 1013.9
20260501164234 66 238 1.0 5.0 0.00 0.00 0.00 72 1013.9
20260501164155 66 229 1.0 4.0 0.00 0.00 0.00 71 1013.9
20260501164135 66 150 1.0 4.0 0.00 0.00 0.00 71 1013.9
20260501164034 66 150 1.0 4.0 0.00 0.00 0.00 71 1013.9
20260501163934 66 204 1.0 4.0 0.00 0.00 0.00 71 1013.9
20260501163835 66 207 1.0 4.0 0.00 0.00 0.00 71 1013.9
20260501163729 66 195 1.0 4.0 0.00 0.00 0.00 71 1013.9
20260501163650 66 214 1.0 4.0 0.00 0.00 0.00 71 1013.9
20260501163628 66 218 1.0 4.0 0.00 0.00 0.00 71 1013.9
20260501163529 66 207 1.0 4.0 0.00 0.00 0.00 72 1013.9
20260501163429 66 160 1.0 3.0 0.00 0.00 0.00 72 1013.9
20260501163416 65 130 1.0 4.0 0.00 0.00 0.00 72 1014.0
20260501163328 66 130 1.0 4.0 0.00 0.00 0.00 72 1013.9
20260501163255 65 129 1.0 4.0 0.00 0.00 0.00 72 1014.0
20260501163125 65 92 1.0 5.0 0.00 0.00 0.00 72 1014.0
20260501163024 65 139 2.0 5.0 0.00 0.00 0.00 72 1014.0
20260501162924 65 181 2.0 5.0 0.00 0.00 0.00 72 1014.0
20260501162902 65 143 2.0 6.0 0.00 0.00 0.00 73 1014.0
20260501162823 65 153 2.0 6.0 0.00 0.00 0.00 73 1014.0
20260501162721 65 140 2.0 6.0 0.00 0.00 0.00 73 1013.9
20260501162616 65 149 2.0 6.0 0.00 0.00 0.00 73 1014.0
20260501162516 65 201 2.0 6.0 0.00 0.00 0.00 73 1014.0
20260501162416 65 226 1.0 6.0 0.00 0.00 0.00 72 1014.0
20260501162401 65 171 1.0 6.0 0.00 0.00 0.00 73 1014.0
20260501162316 65 146 1.0 6.0 0.00 0.00 0.00 72 1014.0
20260501162243 65 238 1.0 6.0 0.00 0.00 0.00 73 1013.9
20260501162110 65 131 1.0 6.0 0.00 0.00 0.00 72 1014.0
20260501162010 65 146 1.0 6.0 0.00 0.00 0.00 73 1014.0
20260501161910 65 163 1.0 6.0 0.00 0.00 0.00 73 1014.0
20260501161811 65 148 1.0 5.0 0.00 0.00 0.00 74 1014.0
20260501161711 64 148 1.0 5.0 0.00 0.00 0.00 75 1014.0
20260501161626 64 211 1.0 5.0 0.00 0.00 0.00 75 1014.0
20260501161608 64 211 1.0 5.0 0.00 0.00 0.00 74 1014.0
20260501161509 64 211 1.0 5.0 0.00 0.00 0.00 74 1014.0
20260501161406 64 217 1.0 5.0 0.00 0.00 0.00 74 1014.0
20260501161304 64 217 1.0 5.0 0.00 0.00 0.00 73 1014.0
20260501161159 64 217 1.0 5.0 0.00 0.00 0.00 73 1014.0
20260501161121 64 218 1.0 5.0 0.00 0.00 0.00 73 1014.0
20260501161058 64 238 1.0 5.0 0.00 0.00 0.00 73 1014.0
20260501160958 65 143 1.0 5.0 0.00 0.00 0.00 73 1013.9
20260501160858 65 177 1.0 4.0 0.00 0.00 0.00 73 1013.9
20260501160758 65 198 1.0 3.0 0.00 0.00 0.00 74 1013.9
20260501160658 64 134 1.0 4.0 0.00 0.00 0.00 75 1013.9
20260501160614 64 134 1.0 4.0 0.00 0.00 0.00 75 1013.9
20260501160557 64 141 1.0 4.0 0.00 0.00 0.00 75 1013.9
20260501160457 64 141 1.0 4.0 0.00 0.00 0.00 75 1014.0
20260501160354 63 141 1.0 4.0 0.00 0.00 0.00 76 1014.0
20260501160252 63 141 1.0 4.0 0.00 0.00 0.00 76 1014.0
20260501160146 63 100 1.0 4.0 0.00 0.00 0.00 75 1014.0
20260501160111 63 131 1.0 4.0 0.00 0.00 0.00 75 1014.0
20260501160046 63 131 1.0 4.0 0.00 0.00 0.00 75 1013.9
20260501155946 63 131 1.0 4.0 0.00 0.00 0.00 75 1014.0
20260501155847 63 199 1.0 4.0 0.00 0.00 0.00 76 1013.9
20260501155747 63 139 1.0 5.0 0.00 0.00 0.00 76 1013.9